Wetterdaten: aktuell Montag, 27.09.2021 21:50
Datum Zeit Temp. -10cm Temp. 5cm Temp. 2m Feuchte 2m Luftdruck Regen Wind Richtung Richtung Taupunkt Windchill Windben
27.09.2021 21:50 17,3 C 14,8 C 15,7 C 83 % 1016,6 hPa 0,0 l/m 0,0 km/h (0 Bft) W-NW 292 12,8 C 15,7 C 0,0 km/h (0 Bft)
27.09.2021 21:48 17,3 C 14,7 C 15,7 C 83 % 1016,8 hPa 0,0 l/m 0,0 km/h (0 Bft) W-NW 292 12,8 C 15,7 C 0,0 km/h (0 Bft)
27.09.2021 21:46 17,3 C 14,8 C 15,7 C 83 % 1016,8 hPa 0,0 l/m 0,0 km/h (0 Bft) W-NW 292 12,8 C 15,7 C 0,0 km/h (0 Bft)
27.09.2021 21:44 17,3 C 14,6 C 15,8 C 83 % 1016,8 hPa 0,0 l/m 0,0 km/h (0 Bft) W-NW 292 12,9 C 15,8 C 0,0 km/h (0 Bft)
27.09.2021 21:42 17,3 C 14,7 C 15,9 C 82 % 1016,8 hPa 0,0 l/m 0,0 km/h (0 Bft) W-NW 292 12,8 C 15,9 C 0,0 km/h (0 Bft)
27.09.2021 21:40 17,3 C 14,9 C 15,8 C 83 % 1016,8 hPa 0,0 l/m 0,0 km/h (0 Bft) W-NW 292 12,9 C 15,8 C 0,0 km/h (0 Bft)
27.09.2021 21:38 17,3 C 14,7 C 16,0 C 82 % 1016,8 hPa 0,0 l/m 0,0 km/h (0 Bft) W-NW 292 12,9 C 16,0 C 0,0 km/h (0 Bft)
27.09.2021 21:36 17,3 C 15,1 C 16,0 C 82 % 1016,8 hPa 0,0 l/m 0,0 km/h (0 Bft) W-NW 292 12,9 C 16,0 C 0,0 km/h (0 Bft)
27.09.2021 21:34 17,3 C 14,9 C 16,0 C 82 % 1016,8 hPa 0,0 l/m 0,0 km/h (0 Bft) W-NW 292 12,9 C 16,0 C 0,0 km/h (0 Bft)
27.09.2021 21:32 17,3 C 15,0 C 16,0 C 82 % 1016,8 hPa 0,0 l/m 0,0 km/h (0 Bft) W-NW 292 12,9 C 16,0 C 0,0 km/h (0 Bft)
27.09.2021 21:30 17,2 C 15,1 C 16,1 C 82 % 1016,8 hPa 0,0 l/m 0,0 km/h (0 Bft) W-NW 292 13,0 C 16,1 C 0,0 km/h (0 Bft)
27.09.2021 21:28 17,4 C 15,3 C 16,1 C 82 % 1016,7 hPa 0,0 l/m 0,0 km/h (0 Bft) W-NW 292 13,0 C 16,1 C 0,0 km/h (0 Bft)
27.09.2021 21:26 17,4 C 15,2 C 16,2 C 82 % 1016,7 hPa 0,0 l/m 0,0 km/h (0 Bft) W-NW 292 13,1 C 16,2 C 0,0 km/h (0 Bft)
27.09.2021 21:24 17,4 C 15,2 C 16,2 C 82 % 1016,7 hPa 0,0 l/m 0,0 km/h (0 Bft) W-NW 292 13,1 C 16,2 C 0,0 km/h (0 Bft)
27.09.2021 21:22 17,4 C 15,2 C 16,2 C 82 % 1016,7 hPa 0,0 l/m 0,0 km/h (0 Bft) W-NW 292 13,1 C 16,2 C 0,0 km/h (0 Bft)
27.09.2021 21:20 17,4 C 15,2 C 16,3 C 82 % 1016,7 hPa 0,0 l/m 0,0 km/h (0 Bft) W-NW 292 13,2 C 16,3 C 0,0 km/h (0 Bft)
27.09.2021 21:18 17,4 C 15,3 C 16,3 C 82 % 1016,7 hPa 0,0 l/m 0,0 km/h (0 Bft) W-NW 292 13,2 C 16,3 C 0,0 km/h (0 Bft)
27.09.2021 21:16 17,4 C 15,4 C 16,4 C 82 % 1016,7 hPa 0,0 l/m 0,0 km/h (0 Bft) W-NW 292 13,3 C 16,4 C 0,0 km/h (0 Bft)
27.09.2021 21:14 17,3 C 15,8 C 16,4 C 82 % 1016,7 hPa 0,0 l/m 0,0 km/h (0 Bft) W-NW 292 13,3 C 16,4 C 0,0 km/h (0 Bft)
27.09.2021 21:12 17,3 C 16,0 C 16,5 C 82 % 1016,7 hPa 0,0 l/m 0,0 km/h (0 Bft) W-NW 292 13,4 C 16,5 C 0,0 km/h (0 Bft)
27.09.2021 21:10 17,3 C 16,1 C 16,5 C 82 % 1016,7 hPa 0,0 l/m 0,0 km/h (0 Bft) W-NW 292 13,4 C 16,5 C 0,0 km/h (0 Bft)
27.09.2021 21:08 17,3 C 16,1 C 16,5 C 82 % 1016,6 hPa 0,0 l/m 0,0 km/h (0 Bft) W-NW 292 13,4 C 16,5 C 0,0 km/h (0 Bft)
27.09.2021 21:06 17,3 C 16,1 C 16,4 C 82 % 1016,6 hPa 0,0 l/m 0,0 km/h (0 Bft) W-NW 292 13,3 C 16,4 C 0,0 km/h (0 Bft)
27.09.2021 21:04 17,3 C 16,2 C 16,5 C 82 % 1016,6 hPa 0,0 l/m 0,0 km/h (0 Bft) W-NW 292 13,4 C 16,5 C 0,0 km/h (0 Bft)
27.09.2021 21:02 17,3 C 16,3 C 16,6 C 82 % 1016,6 hPa 0,0 l/m 0,0 km/h (0 Bft) W-NW 292 13,5 C 16,6 C 0,0 km/h (0 Bft)
27.09.2021 21:00 17,3 C 16,3 C 16,6 C 82 % 1016,6 hPa 0,0 l/m 0,0 km/h (0 Bft) W-NW 292 13,5 C 16,6 C 0,0 km/h (0 Bft)
27.09.2021 20:58 17,3 C 16,4 C 16,6 C 82 % 1016,6 hPa 0,0 l/m 0,0 km/h (0 Bft) W-NW 292 13,5 C 16,6 C 0,0 km/h (0 Bft)
27.09.2021 20:56 17,3 C 16,5 C 16,7 C 82 % 1016,6 hPa 0,0 l/m 0,0 km/h (0 Bft) W-NW 292 13,6 C 16,7 C 0,0 km/h (0 Bft)
27.09.2021 20:54 17,3 C 16,4 C 16,7 C 82 % 1016,6 hPa 0,0 l/m 0,0 km/h (0 Bft) W-NW 292 13,6 C 16,7 C 0,0 km/h (0 Bft)
27.09.2021 20:52 17,3 C 16,4 C 16,7 C 82 % 1016,6 hPa 0,0 l/m 0,0 km/h (0 Bft) W-NW 292 13,6 C 16,7 C 0,0 km/h (0 Bft)
27.09.2021 20:50 17,3 C 16,4 C 16,7 C 82 % 1016,6 hPa 0,0 l/m 0,0 km/h (0 Bft) W-NW 292 13,6 C 16,7 C 0,0 km/h (0 Bft)
27.09.2021 20:48 17,3 C 16,5 C 16,7 C 82 % 1016,4 hPa 0,0 l/m 0,0 km/h (0 Bft) W-NW 292 13,6 C 16,7 C 0,0 km/h (0 Bft)
27.09.2021 20:46 17,3 C 16,6 C 16,7 C 82 % 1016,4 hPa 0,0 l/m 0,0 km/h (0 Bft) W-NW 292 13,6 C 16,7 C 0,0 km/h (0 Bft)
27.09.2021 20:44 17,3 C 16,8 C 16,7 C 82 % 1016,4 hPa 0,0 l/m 0,0 km/h (0 Bft) W-NW 292 13,6 C 16,7 C 0,0 km/h (0 Bft)
27.09.2021 20:42 17,3 C 16,9 C 16,8 C 82 % 1016,4 hPa 0,0 l/m 0,0 km/h (0 Bft) W-NW 292 13,7 C 16,8 C 0,0 km/h (0 Bft)
27.09.2021 20:40 17,3 C 16,9 C 16,8 C 82 % 1016,4 hPa 0,0 l/m 0,0 km/h (0 Bft) W-NW 292 13,7 C 16,8 C 0,0 km/h (0 Bft)
27.09.2021 20:38 17,3 C 16,9 C 16,8 C 82 % 1016,4 hPa 0,0 l/m 0,0 km/h (0 Bft) W-NW 292 13,7 C 16,8 C 0,0 km/h (0 Bft)
27.09.2021 20:36 17,3 C 16,9 C 16,8 C 82 % 1016,4 hPa 0,0 l/m 0,0 km/h (0 Bft) W-NW 292 13,7 C 16,8 C 0,0 km/h (0 Bft)
27.09.2021 20:34 17,3 C 16,9 C 16,8 C 82 % 1016,4 hPa 0,0 l/m 0,0 km/h (0 Bft) W-NW 292 13,7 C 16,8 C 0,0 km/h (0 Bft)
27.09.2021 20:32 17,3 C 16,7 C 16,8 C 82 % 1016,4 hPa 0,0 l/m 0,2 km/h (0 Bft) W-NW 292 13,7 C 16,8 C 0,0 km/h (0 Bft)
27.09.2021 20:30 17,3 C 16,7 C 16,8 C 82 % 1016,4 hPa 0,0 l/m 0,2 km/h (0 Bft) W-NW 292 13,7 C 16,8 C 0,0 km/h (0 Bft)
27.09.2021 20:28 17,3 C 16,7 C 16,8 C 82 % 1016,2 hPa 0,0 l/m 0,2 km/h (0 Bft) W-NW 292 13,7 C 16,8 C 0,0 km/h (0 Bft)
27.09.2021 20:26 17,3 C 16,8 C 16,8 C 82 % 1016,2 hPa 0,0 l/m 0,2 km/h (0 Bft) NW 315 13,7 C 16,8 C 0,0 km/h (0 Bft)
27.09.2021 20:24 17,3 C 16,9 C 16,8 C 82 % 1016,2 hPa 0,0 l/m 0,2 km/h (0 Bft) NW 315 13,7 C 16,8 C 0,0 km/h (0 Bft)
27.09.2021 20:22 17,3 C 16,9 C 16,8 C 82 % 1016,2 hPa 0,0 l/m 0,2 km/h (0 Bft) NW 315 13,7 C 16,8 C 2,9 km/h (1 Bft)
27.09.2021 20:20 17,3 C 16,8 C 16,8 C 82 % 1016,2 hPa 0,0 l/m 0,0 km/h (0 Bft) W-NW 292 13,7 C 16,8 C 0,0 km/h (0 Bft)
27.09.2021 20:18 17,3 C 16,9 C 16,8 C 82 % 1016,2 hPa 0,0 l/m 0,0 km/h (0 Bft) W-NW 292 13,7 C 16,8 C 0,0 km/h (0 Bft)
27.09.2021 20:16 17,3 C 16,9 C 16,8 C 82 % 1016,2 hPa 0,0 l/m 0,2 km/h (0 Bft) W 270 13,7 C 16,8 C 0,0 km/h (0 Bft)
27.09.2021 20:14 17,3 C 16,8 C 16,8 C 81 % 1016,2 hPa 0,0 l/m 0,2 km/h (0 Bft) S 180 13,5 C 16,8 C 0,0 km/h (0 Bft)
27.09.2021 20:12 17,3 C 16,8 C 16,8 C 81 % 1016,2 hPa 0,0 l/m 0,2 km/h (0 Bft) W 270 13,5 C 16,8 C 2,9 km/h (1 Bft)
27.09.2021 20:10 17,3 C 16,9 C 16,8 C 81 % 1016,2 hPa 0,0 l/m 0,2 km/h (0 Bft) NO 45 13,5 C 16,8 C 0,0 km/h (0 Bft)
27.09.2021 20:08 17,3 C 16,9 C 16,9 C 81 % 1016,1 hPa 0,0 l/m 0,2 km/h (0 Bft) NW 315 13,6 C 16,9 C 0,0 km/h (0 Bft)
27.09.2021 20:06 17,3 C 16,8 C 16,9 C 81 % 1016,1 hPa 0,0 l/m 0,2 km/h (0 Bft) W-NW 292 13,6 C 16,9 C 2,4 km/h (1 Bft)
27.09.2021 20:04 17,3 C 16,7 C 16,9 C 81 % 1016,1 hPa 0,0 l/m 0,5 km/h (0 Bft) NW 315 13,6 C 16,9 C 0,0 km/h (0 Bft)
27.09.2021 20:02 17,3 C 16,6 C 16,9 C 81 % 1016,1 hPa 0,0 l/m 0,7 km/h (0 Bft) NW 315 13,6 C 16,9 C 0,0 km/h (0 Bft)
27.09.2021 20:00 17,3 C 16,6 C 16,9 C 81 % 1016,1 hPa 0,0 l/m 1,0 km/h (0 Bft) NW 315 13,6 C 16,9 C 0,0 km/h (0 Bft)
27.09.2021 19:58 17,3 C 16,6 C 16,9 C 81 % 1016,1 hPa 0,0 l/m 0,7 km/h (0 Bft) N-NW 337 13,6 C 16,9 C 0,0 km/h (0 Bft)
27.09.2021 19:56 17,3 C 16,5 C 17,0 C 81 % 1016,1 hPa 0,0 l/m 0,7 km/h (0 Bft) S-SO 157 13,7 C 17,0 C 0,0 km/h (0 Bft)
27.09.2021 19:54 17,3 C 16,4 C 17,0 C 81 % 1016,1 hPa 0,0 l/m 0,7 km/h (0 Bft) SO 135 13,7 C 17,0 C 4,1 km/h (1 Bft)
27.09.2021 19:52 17,3 C 16,5 C 17,0 C 81 % 1016,1 hPa 0,0 l/m 0,5 km/h (0 Bft) S 180 13,7 C 17,0 C 3,4 km/h (1 Bft)
27.09.2021 19:50 17,3 C 16,7 C 17,0 C 81 % 1016,1 hPa 0,0 l/m 0,5 km/h (0 Bft) N 360 13,7 C 17,0 C 3,6 km/h (1 Bft)
27.09.2021 19:48 17,3 C 16,8 C 17,1 C 81 % 1016,1 hPa 0,0 l/m 0,5 km/h (0 Bft) NW 315 13,8 C 17,1 C 0,0 km/h (0 Bft)
27.09.2021 19:46 17,3 C 16,8 C 17,1 C 81 % 1016,1 hPa 0,0 l/m 0,5 km/h (0 Bft) O 90 13,8 C 17,1 C 0,0 km/h (0 Bft)
27.09.2021 19:44 17,4 C 16,5 C 17,1 C 81 % 1016,1 hPa 0,0 l/m 0,7 km/h (0 Bft) NW 315 13,8 C 17,1 C 7,5 km/h (2 Bft)
27.09.2021 19:42 17,4 C 16,6 C 17,1 C 81 % 1016,1 hPa 0,0 l/m 0,5 km/h (0 Bft) W-SW 247 13,8 C 17,1 C 2,9 km/h (1 Bft)
27.09.2021 19:40 17,4 C 16,6 C 17,1 C 81 % 1016,1 hPa 0,0 l/m 0,7 km/h (0 Bft) S-SW 202 13,8 C 17,1 C 0,0 km/h (0 Bft)
27.09.2021 19:38 17,4 C 16,7 C 17,1 C 81 % 1016,1 hPa 0,0 l/m 0,7 km/h (0 Bft) W 270 13,8 C 17,1 C 0,0 km/h (0 Bft)
27.09.2021 19:36 17,4 C 16,9 C 17,1 C 81 % 1016,1 hPa 0,0 l/m 0,5 km/h (0 Bft) W-NW 292 13,8 C 17,1 C 0,0 km/h (0 Bft)
27.09.2021 19:34 17,4 C 16,8 C 17,2 C 81 % 1016,1 hPa 0,0 l/m 0,5 km/h (0 Bft) W-NW 292 13,9 C 17,2 C 2,7 km/h (1 Bft)
27.09.2021 19:32 17,4 C 16,9 C 17,2 C 81 % 1016,1 hPa 0,0 l/m 0,5 km/h (0 Bft) NW 315 13,9 C 17,2 C 4,3 km/h (1 Bft)
27.09.2021 19:30 17,4 C 16,6 C 17,2 C 81 % 1016,1 hPa 0,0 l/m 0,2 km/h (0 Bft) N-NW 337 13,9 C 17,2 C 0,0 km/h (0 Bft)
27.09.2021 19:28 17,4 C 16,6 C 17,2 C 81 % 1016,1 hPa 0,0 l/m 0,0 km/h (0 Bft) W-SW 247 13,9 C 17,2 C 0,0 km/h (0 Bft)
27.09.2021 19:26 17,4 C 16,6 C 17,2 C 81 % 1016,1 hPa 0,0 l/m 0,0 km/h (0 Bft) W-SW 247 13,9 C 17,2 C 0,0 km/h (0 Bft)
27.09.2021 19:24 17,4 C 16,8 C 17,3 C 81 % 1016,1 hPa 0,0 l/m 0,0 km/h (0 Bft) W-SW 247 14,0 C 17,3 C 0,0 km/h (0 Bft)
27.09.2021 19:22 17,4 C 16,9 C 17,3 C 81 % 1016,1 hPa 0,0 l/m 0,0 km/h (0 Bft) W-NW 292 14,0 C 17,3 C 0,0 km/h (0 Bft)
27.09.2021 19:20 17,4 C 17,0 C 17,3 C 81 % 1016,1 hPa 0,0 l/m 0,0 km/h (0 Bft) W-NW 292 14,0 C 17,3 C 0,0 km/h (0 Bft)
27.09.2021 19:18 17,4 C 17,1 C 17,3 C 81 % 1016,1 hPa 0,0 l/m 0,5 km/h (0 Bft) W-NW 292 14,0 C 17,3 C 0,0 km/h (0 Bft)
27.09.2021 19:16 17,4 C 17,1 C 17,4 C 81 % 1016,1 hPa 0,0 l/m 0,5 km/h (0 Bft) W-NW 292 14,1 C 17,4 C 0,0 km/h (0 Bft)
27.09.2021 19:14 17,4 C 17,2 C 17,4 C 81 % 1016,1 hPa 0,0 l/m 0,5 km/h (0 Bft) W-NW 292 14,1 C 17,4 C 0,0 km/h (0 Bft)
27.09.2021 19:12 17,4 C 17,3 C 17,4 C 81 % 1016,1 hPa 0,0 l/m 0,5 km/h (0 Bft) W 270 14,1 C 17,4 C 2,4 km/h (1 Bft)
27.09.2021 19:10 17,4 C 17,2 C 17,4 C 81 % 1016,1 hPa 0,0 l/m 0,5 km/h (0 Bft) W 270 14,1 C 17,4 C 0,0 km/h (0 Bft)
27.09.2021 19:08 17,4 C 17,2 C 17,4 C 81 % 1015,9 hPa 0,0 l/m 0,0 km/h (0 Bft) W-NW 292 14,1 C 17,4 C 0,0 km/h (0 Bft)
27.09.2021 19:06 17,4 C 17,2 C 17,4 C 81 % 1015,9 hPa 0,0 l/m 0,0 km/h (0 Bft) NW 315 14,1 C 17,4 C 0,0 km/h (0 Bft)
27.09.2021 19:04 17,4 C 17,3 C 17,5 C 81 % 1015,9 hPa 0,0 l/m 0,2 km/h (0 Bft) NW 315 14,2 C 17,5 C 0,0 km/h (0 Bft)
27.09.2021 19:02 17,4 C 17,2 C 17,5 C 81 % 1015,9 hPa 0,0 l/m 0,2 km/h (0 Bft) S-SO 157 14,2 C 17,5 C 0,0 km/h (0 Bft)
27.09.2021 19:00 17,4 C 17,2 C 17,5 C 81 % 1015,9 hPa 0,0 l/m 0,0 km/h (0 Bft) NO 45 14,2 C 17,5 C 0,0 km/h (0 Bft)
27.09.2021 18:58 17,4 C 17,2 C 17,5 C 81 % 1015,9 hPa 0,0 l/m 0,2 km/h (0 Bft) N-NO 22 14,2 C 17,5 C 0,0 km/h (0 Bft)
27.09.2021 18:56 17,4 C 17,3 C 17,5 C 81 % 1015,9 hPa 0,0 l/m 0,5 km/h (0 Bft) NW 315 14,2 C 17,5 C 0,0 km/h (0 Bft)
27.09.2021 18:54 17,4 C 17,2 C 17,6 C 81 % 1015,9 hPa 0,0 l/m 0,5 km/h (0 Bft) NW 315 14,3 C 17,6 C 0,0 km/h (0 Bft)
27.09.2021 18:52 17,4 C 17,2 C 17,5 C 81 % 1015,9 hPa 0,0 l/m 0,7 km/h (0 Bft) NW 315 14,2 C 17,5 C 0,0 km/h (0 Bft)
27.09.2021 18:50 17,4 C 17,3 C 17,6 C 81 % 1015,9 hPa 0,0 l/m 0,7 km/h (0 Bft) NW 315 14,3 C 17,6 C 0,0 km/h (0 Bft)
27.09.2021 18:48 17,4 C 17,4 C 17,6 C 81 % 1015,9 hPa 0,0 l/m 0,7 km/h (0 Bft) W 270 14,3 C 17,6 C 0,0 km/h (0 Bft)
27.09.2021 18:46 17,4 C 17,3 C 17,6 C 81 % 1015,9 hPa 0,0 l/m 0,2 km/h (0 Bft) W-SW 247 14,3 C 17,6 C 3,4 km/h (1 Bft)
27.09.2021 18:44 17,4 C 17,4 C 17,6 C 81 % 1015,9 hPa 0,0 l/m 0,2 km/h (0 Bft) N-NW 337 14,3 C 17,6 C 0,0 km/h (0 Bft)
27.09.2021 18:42 17,4 C 17,3 C 17,6 C 81 % 1015,9 hPa 0,0 l/m 0,5 km/h (0 Bft) N-NO 22 14,3 C 17,6 C 0,0 km/h (0 Bft)
27.09.2021 18:40 17,4 C 17,3 C 17,6 C 81 % 1015,9 hPa 0,0 l/m 0,7 km/h (0 Bft) W-NW 292 14,3 C 17,6 C 0,0 km/h (0 Bft)
27.09.2021 18:38 17,4 C 17,4 C 17,6 C 81 % 1015,9 hPa 0,0 l/m 0,7 km/h (0 Bft) SW 225 14,3 C 17,6 C 0,0 km/h (0 Bft)
27.09.2021 18:36 17,4 C 17,5 C 17,6 C 81 % 1015,9 hPa 0,0 l/m 0,7 km/h (0 Bft) W 270 14,3 C 17,6 C 0,0 km/h (0 Bft)
27.09.2021 18:34 17,4 C 17,5 C 17,6 C 81 % 1015,9 hPa 0,0 l/m 0,7 km/h (0 Bft) S 180 14,3 C 17,6 C 3,6 km/h (1 Bft)
27.09.2021 18:32 17,4 C 17,5 C 17,6 C 81 % 1015,9 hPa 0,0 l/m 1,0 km/h (0 Bft) NW 315 14,3 C 17,6 C 0,0 km/h (0 Bft)
27.09.2021 18:30 17,4 C 17,6 C 17,6 C 81 % 1015,9 hPa 0,0 l/m 0,7 km/h (0 Bft) NW 315 14,3 C 17,6 C 0,0 km/h (0 Bft)
27.09.2021 18:28 17,4 C 17,5 C 17,7 C 81 % 1015,8 hPa 0,0 l/m 0,5 km/h (0 Bft) W 270 14,4 C 17,7 C 0,0 km/h (0 Bft)
27.09.2021 18:26 17,4 C 17,6 C 17,7 C 81 % 1015,8 hPa 0,0 l/m 0,7 km/h (0 Bft) NW 315 14,4 C 17,7 C 0,0 km/h (0 Bft)
27.09.2021 18:24 17,4 C 17,5 C 17,6 C 81 % 1015,8 hPa 0,0 l/m 1,0 km/h (0 Bft) W 270 14,3 C 17,6 C 0,0 km/h (0 Bft)
27.09.2021 18:22 17,4 C 17,6 C 17,6 C 81 % 1015,8 hPa 0,0 l/m 1,0 km/h (0 Bft) N-NW 337 14,3 C 17,6 C 5,8 km/h (2 Bft)
27.09.2021 18:20 17,4 C 17,5 C 17,6 C 81 % 1015,8 hPa 0,0 l/m 1,0 km/h (0 Bft) S 180 14,3 C 17,6 C 0,0 km/h (0 Bft)
27.09.2021 18:18 17,4 C 17,6 C 17,6 C 80 % 1015,8 hPa 0,0 l/m 1,2 km/h (1 Bft) S-SO 157 14,1 C 17,6 C 2,4 km/h (1 Bft)
27.09.2021 18:16 17,4 C 17,7 C 17,6 C 81 % 1015,8 hPa 0,0 l/m 1,2 km/h (1 Bft) W-NW 292 14,3 C 17,6 C 0,0 km/h (0 Bft)
27.09.2021 18:14 17,4 C 17,7 C 17,6 C 81 % 1015,8 hPa 0,0 l/m 1,4 km/h (1 Bft) NW 315 14,3 C 17,6 C 3,1 km/h (1 Bft)
27.09.2021 18:12 17,4 C 17,6 C 17,6 C 81 % 1015,8 hPa 0,0 l/m 1,7 km/h (1 Bft) W 270 14,3 C 17,6 C 4,1 km/h (1 Bft)
27.09.2021 18:10 17,4 C 17,5 C 17,6 C 81 % 1015,8 hPa 0,0 l/m 1,9 km/h (1 Bft) O-SO 112 14,3 C 17,6 C 0,0 km/h (0 Bft)
27.09.2021 18:08 17,4 C 17,6 C 17,7 C 81 % 1015,7 hPa 0,0 l/m 1,9 km/h (1 Bft) W-NW 292 14,4 C 17,7 C 2,4 km/h (1 Bft)
27.09.2021 18:06 17,4 C 17,7 C 17,7 C 81 % 1015,7 hPa 0,0 l/m 1,9 km/h (1 Bft) N-NW 337 14,4 C 17,7 C 0,0 km/h (0 Bft)
27.09.2021 18:04 17,4 C 17,7 C 17,7 C 81 % 1015,7 hPa 0,0 l/m 1,9 km/h (1 Bft) W 270 14,4 C 17,7 C 3,4 km/h (1 Bft)
27.09.2021 18:02 17,4 C 17,9 C 17,7 C 81 % 1015,7 hPa 0,0 l/m 1,7 km/h (1 Bft) O 90 14,4 C 17,7 C 2,4 km/h (1 Bft)
27.09.2021 18:00 17,4 C 18,0 C 17,7 C 80 % 1015,7 hPa 0,0 l/m 1,4 km/h (1 Bft) O-NO 67 14,2 C 17,7 C 8,7 km/h (2 Bft)
27.09.2021 17:58 17,3 C 18,0 C 17,7 C 80 % 1015,7 hPa 0,0 l/m 1,9 km/h (1 Bft) N-NW 337 14,2 C 17,7 C 0,0 km/h (0 Bft)
27.09.2021 17:56 17,3 C 18,1 C 17,7 C 80 % 1015,7 hPa 0,0 l/m 1,9 km/h (1 Bft) SW 225 14,2 C 17,7 C 3,4 km/h (1 Bft)
27.09.2021 17:54 17,3 C 18,1 C 17,7 C 80 % 1015,7 hPa 0,0 l/m 1,9 km/h (1 Bft) NW 315 14,2 C 17,7 C 3,4 km/h (1 Bft)
27.09.2021 17:52 17,3 C 18,1 C 17,7 C 80 % 1015,7 hPa 0,0 l/m 2,2 km/h (1 Bft) S 180 14,2 C 17,7 C 6,0 km/h (2 Bft)
27.09.2021 17:50 17,3 C 18,1 C 17,8 C 80 % 1015,7 hPa 0,0 l/m 2,2 km/h (1 Bft) NW 315 14,3 C 17,8 C 3,4 km/h (1 Bft)
27.09.2021 17:48 17,3 C 18,1 C 17,8 C 80 % 1015,7 hPa 0,0 l/m 1,9 km/h (1 Bft) SW 225 14,3 C 17,8 C 3,9 km/h (1 Bft)
27.09.2021 17:46 17,3 C 18,1 C 17,8 C 81 % 1015,7 hPa 0,0 l/m 1,4 km/h (1 Bft) S 180 14,5 C 17,8 C 3,9 km/h (1 Bft)
27.09.2021 17:44 17,3 C 18,1 C 17,8 C 80 % 1015,7 hPa 0,0 l/m 1,7 km/h (1 Bft) W 270 14,3 C 17,8 C 4,6 km/h (1 Bft)
27.09.2021 17:42 17,3 C 18,0 C 17,7 C 81 % 1015,7 hPa 0,0 l/m 1,9 km/h (1 Bft) W-SW 247 14,4 C 17,7 C 0,0 km/h (0 Bft)
27.09.2021 17:40 17,3 C 18,1 C 17,8 C 80 % 1015,7 hPa 0,0 l/m 1,7 km/h (1 Bft) W-SW 247 14,3 C 17,8 C 5,6 km/h (1 Bft)
27.09.2021 17:38 17,3 C 18,1 C 17,7 C 80 % 1015,7 hPa 0,0 l/m 1,9 km/h (1 Bft) SO 135 14,2 C 17,7 C 2,7 km/h (1 Bft)
27.09.2021 17:36 17,3 C 18,0 C 17,7 C 80 % 1015,7 hPa 0,0 l/m 2,4 km/h (1 Bft) W 270 14,2 C 17,7 C 4,1 km/h (1 Bft)
27.09.2021 17:34 17,3 C 18,0 C 17,7 C 80 % 1015,7 hPa 0,0 l/m 2,4 km/h (1 Bft) N 360 14,2 C 17,7 C 3,6 km/h (1 Bft)
27.09.2021 17:32 17,3 C 18,0 C 17,7 C 80 % 1015,7 hPa 0,0 l/m 2,2 km/h (1 Bft) SW 225 14,2 C 17,7 C 6,5 km/h (2 Bft)
27.09.2021 17:30 17,3 C 18,0 C 17,7 C 80 % 1015,7 hPa 0,0 l/m 2,2 km/h (1 Bft) W 270 14,2 C 17,7 C 2,4 km/h (1 Bft)
27.09.2021 17:28 17,3 C 18,0 C 17,7 C 80 % 1015,6 hPa 0,0 l/m 2,2 km/h (1 Bft) W-SW 247 14,2 C 17,7 C 7,0 km/h (2 Bft)
27.09.2021 17:26 17,3 C 18,0 C 17,7 C 80 % 1015,6 hPa 0,0 l/m 1,9 km/h (1 Bft) W 270 14,2 C 17,7 C 4,3 km/h (1 Bft)
27.09.2021 17:24 17,3 C 18,0 C 17,7 C 80 % 1015,6 hPa 0,0 l/m 1,9 km/h (1 Bft) NO 45 14,2 C 17,7 C 0,0 km/h (0 Bft)
27.09.2021 17:22 17,3 C 18,1 C 17,8 C 80 % 1015,6 hPa 0,0 l/m 2,2 km/h (1 Bft) S-SO 157 14,3 C 17,8 C 3,9 km/h (1 Bft)
27.09.2021 17:20 17,3 C 18,1 C 17,8 C 80 % 1015,6 hPa 0,0 l/m 2,2 km/h (1 Bft) N-NO 22 14,3 C 17,8 C 3,1 km/h (1 Bft)
27.09.2021 17:18 17,3 C 18,0 C 17,8 C 80 % 1015,6 hPa 0,0 l/m 2,7 km/h (1 Bft) S 180 14,3 C 17,8 C 0,0 km/h (0 Bft)
27.09.2021 17:16 17,3 C 18,0 C 17,8 C 80 % 1015,6 hPa 0,0 l/m 3,1 km/h (1 Bft) W-NW 292 14,3 C 17,8 C 5,6 km/h (1 Bft)
27.09.2021 17:14 17,3 C 18,1 C 17,9 C 80 % 1015,6 hPa 0,0 l/m 2,7 km/h (1 Bft) N 360 14,4 C 17,9 C 0,0 km/h (0 Bft)
27.09.2021 17:12 17,3 C 18,2 C 17,9 C 80 % 1015,6 hPa 0,0 l/m 2,9 km/h (1 Bft) O-SO 112 14,4 C 17,9 C 3,1 km/h (1 Bft)
27.09.2021 17:10 17,3 C 18,3 C 18,0 C 80 % 1015,6 hPa 0,0 l/m 2,7 km/h (1 Bft) O-SO 112 14,5 C 18,0 C 4,8 km/h (1 Bft)
27.09.2021 17:08 17,3 C 18,6 C 18,0 C 80 % 1015,9 hPa 0,0 l/m 2,7 km/h (1 Bft) SW 225 14,5 C 18,0 C 5,8 km/h (2 Bft)
27.09.2021 17:06 17,3 C 18,6 C 18,0 C 80 % 1015,9 hPa 0,0 l/m 2,4 km/h (1 Bft) SW 225 14,5 C 18,0 C 8,9 km/h (2 Bft)
27.09.2021 17:04 17,3 C 18,6 C 17,9 C 80 % 1015,9 hPa 0,0 l/m 1,9 km/h (1 Bft) W-SW 247 14,4 C 17,9 C 5,3 km/h (1 Bft)
27.09.2021 17:02 17,3 C 18,4 C 17,8 C 80 % 1015,9 hPa 0,0 l/m 2,4 km/h (1 Bft) N-NW 337 14,3 C 17,8 C 4,3 km/h (1 Bft)
27.09.2021 17:00 17,3 C 18,3 C 17,7 C 80 % 1015,9 hPa 0,0 l/m 1,9 km/h (1 Bft) S-SW 202 14,2 C 17,7 C 2,7 km/h (1 Bft)
27.09.2021 16:58 17,3 C 18,1 C 17,7 C 80 % 1015,9 hPa 0,0 l/m 2,2 km/h (1 Bft) W-SW 247 14,2 C 17,7 C 6,3 km/h (2 Bft)
27.09.2021 16:56 17,3 C 17,9 C 17,7 C 80 % 1015,9 hPa 0,0 l/m 1,9 km/h (1 Bft) SO 135 14,2 C 17,7 C 0,0 km/h (0 Bft)
27.09.2021 16:54 17,3 C 18,0 C 17,7 C 80 % 1015,9 hPa 0,0 l/m 2,2 km/h (1 Bft) W-NW 292 14,2 C 17,7 C 0,0 km/h (0 Bft)
27.09.2021 16:52 17,3 C 18,1 C 17,7 C 80 % 1015,9 hPa 0,0 l/m 2,7 km/h (1 Bft) NW 315 14,2 C 17,7 C 7,2 km/h (2 Bft)
27.09.2021 16:50 17,3 C 18,2 C 17,7 C 80 % 1015,9 hPa 0,0 l/m 2,9 km/h (1 Bft) NO 45 14,2 C 17,7 C 0,0 km/h (0 Bft)
27.09.2021 16:48 17,3 C 18,2 C 17,7 C 80 % 1015,9 hPa 0,0 l/m 2,9 km/h (1 Bft) SO 135 14,2 C 17,7 C 6,8 km/h (2 Bft)
27.09.2021 16:46 17,3 C 18,2 C 17,7 C 80 % 1015,9 hPa 0,0 l/m 2,9 km/h (1 Bft) S-SO 157 14,2 C 17,7 C 4,6 km/h (1 Bft)
27.09.2021 16:44 17,3 C 18,1 C 17,7 C 80 % 1015,9 hPa 0,0 l/m 3,9 km/h (1 Bft) W-SW 247 14,2 C 17,7 C 5,6 km/h (1 Bft)
27.09.2021 16:42 17,3 C 18,1 C 17,7 C 80 % 1015,9 hPa 0,0 l/m 3,6 km/h (1 Bft) NW 315 14,2 C 17,7 C 4,8 km/h (1 Bft)
27.09.2021 16:40 17,3 C 18,3 C 17,7 C 80 % 1015,9 hPa 0,0 l/m 4,8 km/h (1 Bft) W-NW 292 14,2 C 17,7 C 7,2 km/h (2 Bft)
27.09.2021 16:38 17,3 C 18,4 C 17,7 C 81 % 1015,9 hPa 0,0 l/m 5,1 km/h (1 Bft) SO 135 14,4 C 17,7 C 3,1 km/h (1 Bft)
27.09.2021 16:36 17,3 C 18,4 C 17,7 C 81 % 1015,9 hPa 0,0 l/m 5,6 km/h (1 Bft) N-NW 337 14,4 C 17,7 C 5,3 km/h (1 Bft)
27.09.2021 16:34 17,3 C 18,4 C 17,7 C 81 % 1015,9 hPa 0,0 l/m 5,3 km/h (1 Bft) S 180 14,4 C 17,7 C 4,8 km/h (1 Bft)
27.09.2021 16:32 17,2 C 18,4 C 17,7 C 81 % 1015,9 hPa 0,0 l/m 5,3 km/h (1 Bft) S-SO 157 14,4 C 17,7 C 3,1 km/h (1 Bft)
27.09.2021 16:30 17,2 C 18,5 C 17,7 C 81 % 1015,9 hPa 0,0 l/m 5,1 km/h (1 Bft) S 180 14,4 C 17,7 C 8,9 km/h (2 Bft)
27.09.2021 16:28 17,2 C 18,4 C 17,7 C 81 % 1015,8 hPa 0,0 l/m 4,6 km/h (1 Bft) SO 135 14,4 C 17,7 C 13,0 km/h (3 Bft)
27.09.2021 16:26 17,2 C 18,4 C 17,6 C 81 % 1015,8 hPa 0,0 l/m 4,3 km/h (1 Bft) W-SW 247 14,3 C 17,6 C 6,5 km/h (2 Bft)
27.09.2021 16:24 17,2 C 18,2 C 17,6 C 81 % 1015,8 hPa 0,0 l/m 4,1 km/h (1 Bft) N-NW 337 14,3 C 17,6 C 4,3 km/h (1 Bft)
27.09.2021 16:22 17,2 C 18,1 C 17,6 C 81 % 1015,8 hPa 0,0 l/m 3,9 km/h (1 Bft) W-SW 247 14,3 C 17,6 C 6,5 km/h (2 Bft)
27.09.2021 16:20 17,2 C 18,0 C 17,6 C 81 % 1015,8 hPa 0,0 l/m 3,9 km/h (1 Bft) N 360 14,3 C 17,6 C 2,9 km/h (1 Bft)
27.09.2021 16:18 17,2 C 18,0 C 17,6 C 81 % 1015,8 hPa 0,0 l/m 4,1 km/h (1 Bft) W-SW 247 14,3 C 17,6 C 4,6 km/h (1 Bft)
27.09.2021 16:16 17,2 C 18,0 C 17,6 C 81 % 1015,8 hPa 0,0 l/m 3,9 km/h (1 Bft) SW 225 14,3 C 17,6 C 13,3 km/h (3 Bft)
27.09.2021 16:14 17,2 C 18,1 C 17,7 C 81 % 1015,8 hPa 0,0 l/m 3,9 km/h (1 Bft) N-NO 22 14,4 C 17,7 C 6,3 km/h (2 Bft)
27.09.2021 16:12 17,2 C 18,1 C 17,7 C 81 % 1015,8 hPa 0,0 l/m 3,9 km/h (1 Bft) NW 315 14,4 C 17,7 C 7,2 km/h (2 Bft)
27.09.2021 16:10 17,2 C 18,2 C 17,7 C 81 % 1015,8 hPa 0,0 l/m 4,1 km/h (1 Bft) W-SW 247 14,4 C 17,7 C 8,9 km/h (2 Bft)
27.09.2021 16:08 17,2 C 18,3 C 17,6 C 81 % 1015,7 hPa 0,0 l/m 4,3 km/h (1 Bft) W-NW 292 14,3 C 17,6 C 4,8 km/h (1 Bft)
27.09.2021 16:06 17,2 C 18,1 C 17,6 C 81 % 1015,7 hPa 0,0 l/m 4,6 km/h (1 Bft) O-NO 67 14,3 C 17,6 C 4,6 km/h (1 Bft)
27.09.2021 16:04 17,2 C 18,1 C 17,6 C 81 % 1015,7 hPa 0,0 l/m 4,8 km/h (1 Bft) S-SO 157 14,3 C 17,6 C 4,6 km/h (1 Bft)
27.09.2021 16:02 17,2 C 18,1 C 17,6 C 81 % 1015,7 hPa 0,0 l/m 5,1 km/h (1 Bft) W 270 14,3 C 17,6 C 6,3 km/h (2 Bft)
27.09.2021 16:00 17,2 C 18,3 C 17,6 C 81 % 1015,7 hPa 0,0 l/m 4,8 km/h (1 Bft) W-SW 247 14,3 C 17,6 C 6,3 km/h (2 Bft)
27.09.2021 15:58 17,2 C 18,3 C 17,6 C 81 % 1015,7 hPa 0,0 l/m 5,1 km/h (1 Bft) W-NW 292 14,3 C 17,6 C 11,6 km/h (2 Bft)
27.09.2021 15:56 17,2 C 18,3 C 17,6 C 81 % 1015,7 hPa 0,0 l/m 4,1 km/h (1 Bft) S 180 14,3 C 17,6 C 4,8 km/h (1 Bft)
27.09.2021 15:54 17,2 C 18,3 C 17,6 C 81 % 1015,7 hPa 0,0 l/m 4,1 km/h (1 Bft) N 360 14,3 C 17,6 C 15,4 km/h (3 Bft)
27.09.2021 15:52 17,2 C 18,3 C 17,6 C 81 % 1015,7 hPa 0,0 l/m 4,3 km/h (1 Bft) S 180 14,3 C 17,6 C 7,5 km/h (2 Bft)
27.09.2021 15:50 17,2 C 18,4 C 17,6 C 81 % 1015,7 hPa 0,0 l/m 4,6 km/h (1 Bft) W 270 14,3 C 17,6 C 8,0 km/h (2 Bft)
27.09.2021 15:48 17,2 C 18,3 C 17,6 C 81 % 1015,9 hPa 0,0 l/m 5,3 km/h (1 Bft) NW 315 14,3 C 17,6 C 3,9 km/h (1 Bft)
27.09.2021 15:46 17,2 C 18,4 C 17,6 C 81 % 1015,9 hPa 0,0 l/m 5,8 km/h (2 Bft) N-NW 337 14,3 C 17,6 C 5,8 km/h (2 Bft)
27.09.2021 15:44 17,2 C 18,5 C 17,6 C 81 % 1015,9 hPa 0,0 l/m 6,3 km/h (2 Bft) SO 135 14,3 C 17,6 C 5,3 km/h (1 Bft)
27.09.2021 15:42 17,2 C 18,6 C 17,6 C 81 % 1015,9 hPa 0,0 l/m 6,8 km/h (2 Bft) NO 45 14,3 C 17,6 C 7,5 km/h (2 Bft)
27.09.2021 15:40 17,2 C 18,7 C 17,6 C 81 % 1015,9 hPa 0,0 l/m 6,5 km/h (2 Bft) SW 225 14,3 C 17,6 C 15,2 km/h (3 Bft)
27.09.2021 15:38 17,2 C 18,7 C 17,6 C 81 % 1015,9 hPa 0,0 l/m 6,3 km/h (2 Bft) S 180 14,3 C 17,6 C 11,1 km/h (2 Bft)
27.09.2021 15:36 17,2 C 18,7 C 17,6 C 81 % 1015,9 hPa 0,0 l/m 5,8 km/h (2 Bft) S-SW 202 14,3 C 17,6 C 8,0 km/h (2 Bft)
27.09.2021 15:34 17,1 C 18,6 C 17,6 C 81 % 1015,9 hPa 0,0 l/m 6,3 km/h (2 Bft) SW 225 14,3 C 17,6 C 9,4 km/h (2 Bft)
27.09.2021 15:32 17,1 C 18,5 C 17,5 C 81 % 1015,9 hPa 0,0 l/m 6,3 km/h (2 Bft) N-NW 337 14,2 C 17,5 C 10,9 km/h (2 Bft)
27.09.2021 15:30 17,1 C 18,4 C 17,5 C 81 % 1015,9 hPa 0,0 l/m 6,5 km/h (2 Bft) SW 225 14,2 C 17,5 C 10,9 km/h (2 Bft)
27.09.2021 15:28 17,1 C 18,4 C 17,5 C 81 % 1015,9 hPa 0,0 l/m 6,0 km/h (2 Bft) S 180 14,2 C 17,5 C 3,9 km/h (1 Bft)
27.09.2021 15:26 17,1 C 18,3 C 17,5 C 81 % 1015,9 hPa 0,0 l/m 6,0 km/h (2 Bft) W-NW 292 14,2 C 17,5 C 8,0 km/h (2 Bft)
27.09.2021 15:24 17,1 C 18,2 C 17,5 C 81 % 1015,9 hPa 0,0 l/m 6,0 km/h (2 Bft) N-NW 337 14,2 C 17,5 C 9,7 km/h (2 Bft)
27.09.2021 15:22 17,1 C 18,2 C 17,5 C 81 % 1015,9 hPa 0,0 l/m 5,8 km/h (2 Bft) SO 135 14,2 C 17,5 C 6,8 km/h (2 Bft)
27.09.2021 15:20 17,1 C 18,2 C 17,5 C 81 % 1015,9 hPa 0,0 l/m 5,8 km/h (2 Bft) SW 225 14,2 C 17,5 C 15,7 km/h (3 Bft)
27.09.2021 15:18 17,1 C 18,2 C 17,4 C 81 % 1015,9 hPa 0,0 l/m 6,0 km/h (2 Bft) S 180 14,1 C 17,4 C 5,3 km/h (1 Bft)
27.09.2021 15:16 17,1 C 18,1 C 17,4 C 81 % 1015,9 hPa 0,0 l/m 5,8 km/h (2 Bft) SW 225 14,1 C 17,4 C 8,2 km/h (2 Bft)
27.09.2021 15:14 17,1 C 18,1 C 17,4 C 81 % 1015,9 hPa 0,0 l/m 5,6 km/h (1 Bft) W-SW 247 14,1 C 17,4 C 6,5 km/h (2 Bft)
27.09.2021 15:12 17,1 C 18,3 C 17,5 C 81 % 1015,9 hPa 0,0 l/m 5,6 km/h (1 Bft) NW 315 14,2 C 17,5 C 8,2 km/h (2 Bft)
27.09.2021 15:10 17,1 C 18,4 C 17,5 C 81 % 1015,9 hPa 0,0 l/m 5,3 km/h (1 Bft) W-SW 247 14,2 C 17,5 C 5,6 km/h (1 Bft)
27.09.2021 15:08 17,1 C 18,4 C 17,5 C 81 % 1016,1 hPa 0,0 l/m 5,1 km/h (1 Bft) SW 225 14,2 C 17,5 C 22,7 km/h (4 Bft)
27.09.2021 15:06 17,1 C 18,5 C 17,5 C 81 % 1016,1 hPa 0,0 l/m 5,3 km/h (1 Bft) N-NW 337 14,2 C 17,5 C 9,4 km/h (2 Bft)
27.09.2021 15:04 17,1 C 18,6 C 17,5 C 81 % 1016,1 hPa 0,0 l/m 5,6 km/h (1 Bft) S 180 14,2 C 17,5 C 7,7 km/h (2 Bft)
27.09.2021 15:02 17,1 C 18,6 C 17,5 C 81 % 1016,1 hPa 0,0 l/m 6,0 km/h (2 Bft) W-SW 247 14,2 C 17,5 C 10,9 km/h (2 Bft)
27.09.2021 15:00 17,1 C 18,7 C 17,5 C 81 % 1016,1 hPa 0,0 l/m 5,8 km/h (2 Bft) S 180 14,2 C 17,5 C 8,4 km/h (2 Bft)
27.09.2021 14:58 17,1 C 18,6 C 17,4 C 81 % 1016,1 hPa 0,0 l/m 5,8 km/h (2 Bft) SO 135 14,1 C 17,4 C 0,0 km/h (0 Bft)
27.09.2021 14:56 17,0 C 18,4 C 17,3 C 81 % 1016,1 hPa 0,0 l/m 6,5 km/h (2 Bft) S 180 14,0 C 17,3 C 17,1 km/h (3 Bft)
27.09.2021 14:54 17,0 C 18,4 C 17,3 C 81 % 1016,1 hPa 0,0 l/m 6,3 km/h (2 Bft) W 270 14,0 C 17,3 C 8,9 km/h (2 Bft)
27.09.2021 14:52 17,0 C 18,4 C 17,4 C 81 % 1016,1 hPa 0,0 l/m 6,3 km/h (2 Bft) SW 225 14,1 C 17,4 C 10,6 km/h (2 Bft)
27.09.2021 14:50 17,0 C 18,2 C 17,2 C 81 % 1016,1 hPa 0,0 l/m 7,5 km/h (2 Bft) W 270 13,9 C 17,2 C 9,7 km/h (2 Bft)
27.09.2021 14:48 17,0 C 18,0 C 17,1 C 81 % 1016,1 hPa 0,0 l/m 8,0 km/h (2 Bft) W-SW 247 13,8 C 17,1 C 9,4 km/h (2 Bft)
27.09.2021 14:46 17,0 C 18,1 C 17,2 C 81 % 1016,1 hPa 0,0 l/m 7,5 km/h (2 Bft) SW 225 13,9 C 17,2 C 12,1 km/h (2 Bft)
27.09.2021 14:44 17,0 C 18,1 C 17,2 C 81 % 1016,1 hPa 0,0 l/m 7,0 km/h (2 Bft) W-NW 292 13,9 C 17,2 C 7,0 km/h (2 Bft)
27.09.2021 14:42 17,0 C 18,0 C 17,2 C 81 % 1016,1 hPa 0,0 l/m 8,0 km/h (2 Bft) SO 135 13,9 C 17,2 C 5,6 km/h (1 Bft)
27.09.2021 14:40 17,0 C 17,8 C 17,2 C 80 % 1016,1 hPa 0,0 l/m 7,7 km/h (2 Bft) S 180 13,7 C 17,2 C 24,6 km/h (4 Bft)
27.09.2021 14:38 17,0 C 17,9 C 17,3 C 80 % 1016,1 hPa 0,0 l/m 6,3 km/h (2 Bft) S-SW 202 13,8 C 17,3 C 19,8 km/h (3 Bft)
27.09.2021 14:36 17,0 C 17,8 C 17,3 C 80 % 1016,1 hPa 0,0 l/m 6,5 km/h (2 Bft) N-NW 337 13,8 C 17,3 C 8,9 km/h (2 Bft)
27.09.2021 14:34 17,0 C 18,0 C 17,4 C 80 % 1016,1 hPa 0,0 l/m 6,5 km/h (2 Bft) N-NO 22 13,9 C 17,4 C 12,1 km/h (2 Bft)
27.09.2021 14:32 16,9 C 18,3 C 17,3 C 80 % 1016,1 hPa 0,0 l/m 5,8 km/h (2 Bft) O-SO 112 13,8 C 17,3 C 20,8 km/h (4 Bft)
27.09.2021 14:30 16,9 C 18,8 C 17,6 C 80 % 1016,1 hPa 0,0 l/m 5,3 km/h (1 Bft) S-SO 157 14,1 C 17,6 C 10,6 km/h (2 Bft)
27.09.2021 14:28 16,9 C 18,7 C 17,5 C 80 % 1016,2 hPa 0,0 l/m 5,3 km/h (1 Bft) W 270 14,0 C 17,5 C 29,2 km/h (5 Bft)
27.09.2021 14:26 16,9 C 18,6 C 17,5 C 80 % 1016,2 hPa 0,0 l/m 5,3 km/h (1 Bft) SW 225 14,0 C 17,5 C 29,2 km/h (5 Bft)
27.09.2021 14:24 16,9 C 18,7 C 17,5 C 80 % 1016,2 hPa 0,0 l/m 4,8 km/h (1 Bft) S 180 14,0 C 17,5 C 4,1 km/h (1 Bft)
27.09.2021 14:22 16,9 C 18,7 C 17,5 C 80 % 1016,2 hPa 0,0 l/m 5,6 km/h (1 Bft) S-SO 157 14,0 C 17,5 C 6,3 km/h (2 Bft)
27.09.2021 14:20 16,9 C 18,7 C 17,6 C 80 % 1016,2 hPa 0,0 l/m 6,0 km/h (2 Bft) W-NW 292 14,1 C 17,6 C 5,1 km/h (1 Bft)
27.09.2021 14:18 16,9 C 18,9 C 17,6 C 80 % 1016,2 hPa 0,0 l/m 6,3 km/h (2 Bft) N-NO 22 14,1 C 17,6 C 4,6 km/h (1 Bft)
27.09.2021 14:16 16,9 C 19,0 C 17,6 C 80 % 1016,2 hPa 0,0 l/m 6,8 km/h (2 Bft) S-SO 157 14,1 C 17,6 C 5,3 km/h (1 Bft)
27.09.2021 14:14 16,9 C 18,9 C 17,5 C 80 % 1016,2 hPa 0,0 l/m 6,5 km/h (2 Bft) W 270 14,0 C 17,5 C 11,3 km/h (2 Bft)
27.09.2021 14:12 16,9 C 19,0 C 17,6 C 80 % 1016,2 hPa 0,0 l/m 6,5 km/h (2 Bft) NW 315 14,1 C 17,6 C 15,7 km/h (3 Bft)
27.09.2021 14:10 16,8 C 19,0 C 17,6 C 80 % 1016,2 hPa 0,0 l/m 6,3 km/h (2 Bft) NW 315 14,1 C 17,6 C 4,3 km/h (1 Bft)
27.09.2021 14:08 16,8 C 19,0 C 17,6 C 80 % 1016,2 hPa 0,0 l/m 6,5 km/h (2 Bft) S-SO 157 14,1 C 17,6 C 16,9 km/h (3 Bft)
27.09.2021 14:06 16,8 C 18,9 C 17,6 C 80 % 1016,2 hPa 0,0 l/m 6,0 km/h (2 Bft) N-NW 337 14,1 C 17,6 C 7,2 km/h (2 Bft)
27.09.2021 14:04 16,8 C 19,1 C 17,7 C 80 % 1016,2 hPa 0,0 l/m 6,8 km/h (2 Bft) SW 225 14,2 C 17,7 C 9,9 km/h (2 Bft)
27.09.2021 14:02 16,8 C 19,2 C 17,7 C 80 % 1016,2 hPa 0,0 l/m 7,0 km/h (2 Bft) SO 135 14,2 C 17,7 C 11,6 km/h (2 Bft)
27.09.2021 14:00 16,8 C 19,3 C 17,7 C 80 % 1016,2 hPa 0,0 l/m 7,0 km/h (2 Bft) SW 225 14,2 C 17,7 C 11,3 km/h (2 Bft)
27.09.2021 13:58 16,8 C 19,4 C 17,7 C 80 % 1016,2 hPa 0,0 l/m 7,5 km/h (2 Bft) W 270 14,2 C 17,7 C 7,2 km/h (2 Bft)
27.09.2021 13:56 16,8 C 19,2 C 17,7 C 80 % 1016,2 hPa 0,0 l/m 7,5 km/h (2 Bft) O-SO 112 14,2 C 17,7 C 7,0 km/h (2 Bft)
27.09.2021 13:54 16,8 C 19,0 C 17,6 C 80 % 1016,2 hPa 0,0 l/m 7,7 km/h (2 Bft) S-SW 202 14,1 C 17,6 C 19,8 km/h (3 Bft)
27.09.2021 13:52 16,8 C 19,1 C 17,7 C 80 % 1016,2 hPa 0,0 l/m 7,2 km/h (2 Bft) O-SO 112 14,2 C 17,7 C 18,8 km/h (3 Bft)
27.09.2021 13:50 16,8 C 18,9 C 17,6 C 80 % 1016,2 hPa 0,0 l/m 7,0 km/h (2 Bft) NO 45 14,1 C 17,6 C 6,8 km/h (2 Bft)
27.09.2021 13:48 16,8 C 19,1 C 17,7 C 80 % 1016,2 hPa 0,0 l/m 6,0 km/h (2 Bft) W 270 14,2 C 17,7 C 12,1 km/h (2 Bft)
27.09.2021 13:46 16,8 C 19,1 C 17,7 C 80 % 1016,2 hPa 0,0 l/m 6,8 km/h (2 Bft) N-NW 337 14,2 C 17,7 C 13,8 km/h (3 Bft)
27.09.2021 13:44 16,8 C 19,0 C 17,7 C 80 % 1016,2 hPa 0,0 l/m 7,2 km/h (2 Bft) S 180 14,2 C 17,7 C 4,8 km/h (1 Bft)
27.09.2021 13:42 16,8 C 19,2 C 17,7 C 80 % 1016,2 hPa 0,0 l/m 7,5 km/h (2 Bft) S 180 14,2 C 17,7 C 8,2 km/h (2 Bft)
27.09.2021 13:40 16,8 C 19,2 C 17,6 C 80 % 1016,2 hPa 0,0 l/m 8,0 km/h (2 Bft) S 180 14,1 C 17,6 C 10,1 km/h (2 Bft)
27.09.2021 13:38 16,8 C 18,9 C 17,6 C 80 % 1016,2 hPa 0,0 l/m 8,9 km/h (2 Bft) W-NW 292 14,1 C 17,6 C 8,0 km/h (2 Bft)
27.09.2021 13:36 16,8 C 18,9 C 17,6 C 80 % 1016,2 hPa 0,0 l/m 9,2 km/h (2 Bft) SW 225 14,1 C 17,6 C 18,8 km/h (3 Bft)
27.09.2021 13:34 16,8 C 18,8 C 17,6 C 81 % 1016,2 hPa 0,0 l/m 8,4 km/h (2 Bft) N 360 14,3 C 17,6 C 10,6 km/h (2 Bft)
27.09.2021 13:32 16,8 C 19,0 C 17,6 C 81 % 1016,2 hPa 0,0 l/m 8,2 km/h (2 Bft) SW 225 14,3 C 17,6 C 11,8 km/h (2 Bft)
27.09.2021 13:30 16,8 C 19,0 C 17,6 C 81 % 1016,2 hPa 0,0 l/m 8,2 km/h (2 Bft) S 180 14,3 C 17,6 C 9,2 km/h (2 Bft)
27.09.2021 13:28 16,8 C 19,1 C 17,6 C 81 % 1016,0 hPa 0,0 l/m 7,2 km/h (2 Bft) S-SO 157 14,3 C 17,6 C 21,2 km/h (4 Bft)
27.09.2021 13:26 16,8 C 19,0 C 17,6 C 81 % 1016,0 hPa 0,0 l/m 7,0 km/h (2 Bft) S-SW 202 14,3 C 17,6 C 13,5 km/h (3 Bft)
27.09.2021 13:24 16,8 C 19,2 C 17,7 C 81 % 1016,0 hPa 0,0 l/m 6,5 km/h (2 Bft) W-SW 247 14,4 C 17,7 C 6,0 km/h (2 Bft)
27.09.2021 13:22 16,8 C 19,2 C 17,6 C 81 % 1016,0 hPa 0,0 l/m 7,0 km/h (2 Bft) O-NO 67 14,3 C 17,6 C 15,9 km/h (3 Bft)
27.09.2021 13:20 16,8 C 19,5 C 17,7 C 81 % 1016,0 hPa 0,0 l/m 7,0 km/h (2 Bft) W 270 14,4 C 17,7 C 11,1 km/h (2 Bft)
27.09.2021 13:18 16,8 C 19,6 C 17,6 C 81 % 1016,0 hPa 0,0 l/m 7,5 km/h (2 Bft) S-SW 202 14,3 C 17,6 C 4,6 km/h (1 Bft)
27.09.2021 13:16 16,8 C 19,4 C 17,6 C 81 % 1016,0 hPa 0,0 l/m 8,4 km/h (2 Bft) W-NW 292 14,3 C 17,6 C 8,7 km/h (2 Bft)
27.09.2021 13:14 16,8 C 19,3 C 17,6 C 81 % 1016,0 hPa 0,0 l/m 7,7 km/h (2 Bft) W-NW 292 14,3 C 17,6 C 8,9 km/h (2 Bft)
27.09.2021 13:12 16,8 C 19,2 C 17,5 C 81 % 1016,0 hPa 0,0 l/m 7,2 km/h (2 Bft) NW 315 14,2 C 17,5 C 8,7 km/h (2 Bft)
27.09.2021 13:10 16,8 C 19,1 C 17,5 C 81 % 1016,0 hPa 0,0 l/m 6,8 km/h (2 Bft) S-SO 157 14,2 C 17,5 C 8,2 km/h (2 Bft)
27.09.2021 13:08 16,8 C 18,9 C 17,4 C 81 % 1016,1 hPa 0,0 l/m 6,3 km/h (2 Bft) N-NO 22 14,1 C 17,4 C 9,4 km/h (2 Bft)
27.09.2021 13:06 16,8 C 19,1 C 17,4 C 81 % 1016,1 hPa 0,0 l/m 4,8 km/h (1 Bft) N-NW 337 14,1 C 17,4 C 7,0 km/h (2 Bft)
27.09.2021 13:04 16,8 C 19,0 C 17,3 C 81 % 1016,1 hPa 0,0 l/m 5,1 km/h (1 Bft) S-SO 157 14,0 C 17,3 C 9,9 km/h (2 Bft)
27.09.2021 13:02 16,8 C 18,9 C 17,2 C 81 % 1016,1 hPa 0,0 l/m 5,1 km/h (1 Bft) SW 225 13,9 C 17,2 C 18,1 km/h (3 Bft)
27.09.2021 13:00 16,8 C 18,7 C 17,2 C 81 % 1016,1 hPa 0,0 l/m 5,3 km/h (1 Bft) N-NW 337 13,9 C 17,2 C 6,5 km/h (2 Bft)
27.09.2021 12:58 16,8 C 18,5 C 17,1 C 81 % 1016,1 hPa 0,0 l/m 4,3 km/h (1 Bft) O-NO 67 13,8 C 17,1 C 4,3 km/h (1 Bft)
27.09.2021 12:56 16,8 C 18,2 C 17,0 C 81 % 1016,1 hPa 0,0 l/m 5,1 km/h (1 Bft) NW 315 13,7 C 17,0 C 7,0 km/h (2 Bft)
27.09.2021 12:54 16,8 C 18,2 C 17,0 C 81 % 1016,1 hPa 0,0 l/m 5,3 km/h (1 Bft) S 180 13,7 C 17,0 C 10,4 km/h (2 Bft)
27.09.2021 12:52 16,8 C 18,1 C 17,0 C 81 % 1016,1 hPa 0,0 l/m 5,3 km/h (1 Bft) W-SW 247 13,7 C 17,0 C 4,8 km/h (1 Bft)
27.09.2021 12:50 16,8 C 18,1 C 16,9 C 81 % 1016,1 hPa 0,0 l/m 5,1 km/h (1 Bft) W 270 13,6 C 16,9 C 12,1 km/h (2 Bft)
27.09.2021 12:48 16,8 C 18,0 C 16,9 C 81 % 1016,1 hPa 0,0 l/m 5,1 km/h (1 Bft) O 90 13,6 C 16,9 C 5,3 km/h (1 Bft)
27.09.2021 12:46 16,8 C 17,9 C 16,9 C 81 % 1016,1 hPa 0,0 l/m 5,6 km/h (1 Bft) S 180 13,6 C 16,9 C 14,2 km/h (3 Bft)
27.09.2021 12:44 16,8 C 17,8 C 16,8 C 82 % 1016,1 hPa 0,0 l/m 5,6 km/h (1 Bft) W-SW 247 13,7 C 16,8 C 10,4 km/h (2 Bft)
27.09.2021 12:42 16,8 C 17,9 C 16,8 C 82 % 1016,1 hPa 0,0 l/m 5,6 km/h (1 Bft) S 180 13,7 C 16,8 C 11,3 km/h (2 Bft)
27.09.2021 12:40 16,8 C 17,9 C 16,8 C 82 % 1016,1 hPa 0,0 l/m 5,1 km/h (1 Bft) NO 45 13,7 C 16,8 C 4,1 km/h (1 Bft)
27.09.2021 12:38 16,8 C 17,8 C 16,8 C 82 % 1016,1 hPa 0,0 l/m 6,0 km/h (2 Bft) O 90 13,7 C 16,8 C 8,0 km/h (2 Bft)
27.09.2021 12:36 16,8 C 17,9 C 16,7 C 82 % 1016,1 hPa 0,0 l/m 6,0 km/h (2 Bft) W-SW 247 13,6 C 16,7 C 6,5 km/h (2 Bft)
27.09.2021 12:34 16,8 C 18,0 C 16,7 C 82 % 1016,1 hPa 0,0 l/m 5,8 km/h (2 Bft) S-SO 157 13,6 C 16,7 C 5,8 km/h (2 Bft)
27.09.2021 12:32 16,8 C 17,9 C 16,7 C 82 % 1016,1 hPa 0,0 l/m 5,6 km/h (1 Bft) SW 225 13,6 C 16,7 C 17,6 km/h (3 Bft)
27.09.2021 12:30 16,8 C 17,9 C 16,7 C 82 % 1016,1 hPa 0,0 l/m 5,8 km/h (2 Bft) S 180 13,6 C 16,7 C 5,3 km/h (1 Bft)
27.09.2021 12:28 16,8 C 17,8 C 16,6 C 82 % 1016,1 hPa 0,0 l/m 6,0 km/h (2 Bft) N-NO 22 13,5 C 16,6 C 7,7 km/h (2 Bft)
27.09.2021 12:26 16,8 C 17,9 C 16,6 C 82 % 1016,1 hPa 0,0 l/m 5,8 km/h (2 Bft) O-NO 67 13,5 C 16,6 C 5,1 km/h (1 Bft)
27.09.2021 12:24 16,8 C 17,9 C 16,6 C 82 % 1016,1 hPa 0,0 l/m 5,6 km/h (1 Bft) SW 225 13,5 C 16,6 C 12,1 km/h (2 Bft)
27.09.2021 12:22 16,8 C 17,8 C 16,5 C 82 % 1016,1 hPa 0,0 l/m 5,1 km/h (1 Bft) SO 135 13,4 C 16,5 C 9,2 km/h (2 Bft)
27.09.2021 12:20 16,8 C 17,7 C 16,5 C 82 % 1016,1 hPa 0,0 l/m 5,3 km/h (1 Bft) SW 225 13,4 C 16,5 C 5,1 km/h (1 Bft)
27.09.2021 12:18 16,8 C 17,6 C 16,4 C 82 % 1016,1 hPa 0,0 l/m 5,1 km/h (1 Bft) N 360 13,3 C 16,4 C 6,3 km/h (2 Bft)
27.09.2021 12:16 16,8 C 17,6 C 16,4 C 82 % 1016,1 hPa 0,0 l/m 4,8 km/h (1 Bft) N 360 13,3 C 16,4 C 4,3 km/h (1 Bft)
27.09.2021 12:14 16,8 C 17,4 C 16,3 C 82 % 1016,1 hPa 0,0 l/m 5,3 km/h (1 Bft) SW 225 13,2 C 16,3 C 5,6 km/h (1 Bft)
27.09.2021 12:12 16,8 C 17,2 C 16,3 C 82 % 1016,1 hPa 0,0 l/m 5,6 km/h (1 Bft) S 180 13,2 C 16,3 C 8,7 km/h (2 Bft)
27.09.2021 12:10 16,8 C 17,2 C 16,3 C 82 % 1016,1 hPa 0,0 l/m 5,6 km/h (1 Bft) S 180 13,2 C 16,3 C 8,7 km/h (2 Bft)
27.09.2021 12:08 16,8 C 17,2 C 16,3 C 82 % 1016,1 hPa 0,0 l/m 5,6 km/h (1 Bft) S 180 13,2 C 16,3 C 8,7 km/h (2 Bft)
27.09.2021 12:06 16,8 C 17,2 C 16,3 C 82 % 1016,1 hPa 0,0 l/m 5,6 km/h (1 Bft) S 180 13,2 C 16,3 C 8,7 km/h (2 Bft)
27.09.2021 12:04 16,8 C 17,2 C 16,3 C 82 % 1016,1 hPa 0,0 l/m 5,6 km/h (1 Bft) S 180 13,2 C 16,3 C 8,7 km/h (2 Bft)
27.09.2021 12:02 16,8 C 17,2 C 16,3 C 82 % 1016,1 hPa 0,0 l/m 5,6 km/h (1 Bft) S 180 13,2 C 16,3 C 8,7 km/h (2 Bft)
27.09.2021 12:00 16,8 C 17,2 C 16,3 C 82 % 1016,1 hPa 0,0 l/m 5,3 km/h (1 Bft) W-SW 247 13,2 C 16,3 C 14,5 km/h (3 Bft)
27.09.2021 11:58 16,8 C 17,2 C 16,3 C 82 % 1016,1 hPa 0,0 l/m 5,8 km/h (2 Bft) N-NW 337 13,2 C 16,3 C 5,6 km/h (1 Bft)
27.09.2021 11:56 16,8 C 17,2 C 16,2 C 82 % 1016,1 hPa 0,0 l/m 6,0 km/h (2 Bft) S-SO 157 13,1 C 16,2 C 4,8 km/h (1 Bft)
27.09.2021 11:54 16,8 C 17,2 C 16,2 C 82 % 1016,1 hPa 0,0 l/m 6,5 km/h (2 Bft) S 180 13,1 C 16,2 C 10,9 km/h (2 Bft)
27.09.2021 11:52 16,8 C 17,2 C 16,2 C 82 % 1016,1 hPa 0,0 l/m 6,5 km/h (2 Bft) W 270 13,1 C 16,2 C 0,0 km/h (0 Bft)
27.09.2021 11:50 16,8 C 17,1 C 16,2 C 82 % 1016,1 hPa 0,0 l/m 6,8 km/h (2 Bft) SO 135 13,1 C 16,2 C 5,6 km/h (1 Bft)
27.09.2021 11:48 16,7 C 17,1 C 16,2 C 82 % 1016,2 hPa 0,0 l/m 7,0 km/h (2 Bft) W-SW 247 13,1 C 16,2 C 8,4 km/h (2 Bft)
27.09.2021 11:46 16,7 C 17,1 C 16,2 C 82 % 1016,2 hPa 0,0 l/m 6,5 km/h (2 Bft) O-SO 112 13,1 C 16,2 C 14,5 km/h (3 Bft)
27.09.2021 11:44 16,7 C 17,1 C 16,2 C 82 % 1016,2 hPa 0,0 l/m 6,0 km/h (2 Bft) SO 135 13,1 C 16,2 C 7,7 km/h (2 Bft)
27.09.2021 11:42 16,7 C 17,2 C 16,2 C 82 % 1016,2 hPa 0,0 l/m 5,6 km/h (1 Bft) SO 135 13,1 C 16,2 C 5,1 km/h (1 Bft)
27.09.2021 11:40 16,7 C 17,2 C 16,2 C 82 % 1016,2 hPa 0,0 l/m 6,0 km/h (2 Bft) O-SO 112 13,1 C 16,2 C 12,3 km/h (3 Bft)
27.09.2021 11:38 16,7 C 17,2 C 16,2 C 82 % 1016,2 hPa 0,0 l/m 6,3 km/h (2 Bft) NW 315 13,1 C 16,2 C 7,2 km/h (2 Bft)
27.09.2021 11:36 16,7 C 17,1 C 16,1 C 82 % 1016,2 hPa 0,0 l/m 6,3 km/h (2 Bft) W 270 13,0 C 16,1 C 8,9 km/h (2 Bft)
27.09.2021 11:34 16,7 C 17,1 C 16,0 C 82 % 1016,2 hPa 0,0 l/m 6,3 km/h (2 Bft) N-NW 337 12,9 C 16,0 C 5,8 km/h (2 Bft)
27.09.2021 11:32 16,7 C 17,0 C 16,1 C 82 % 1016,2 hPa 0,0 l/m 5,6 km/h (1 Bft) S 180 13,0 C 16,1 C 10,9 km/h (2 Bft)
27.09.2021 11:30 16,7 C 17,0 C 16,1 C 82 % 1016,2 hPa 0,0 l/m 5,6 km/h (1 Bft) S-SO 157 13,0 C 16,1 C 5,3 km/h (1 Bft)
27.09.2021 11:28 16,7 C 17,1 C 16,1 C 82 % 1016,2 hPa 0,0 l/m 5,6 km/h (1 Bft) SO 135 13,0 C 16,1 C 21,0 km/h (4 Bft)
27.09.2021 11:26 16,7 C 17,1 C 16,1 C 82 % 1016,2 hPa 0,0 l/m 5,6 km/h (1 Bft) N-NW 337 13,0 C 16,1 C 11,8 km/h (2 Bft)
27.09.2021 11:24 16,7 C 17,1 C 16,1 C 82 % 1016,2 hPa 0,0 l/m 5,8 km/h (2 Bft) S 180 13,0 C 16,1 C 5,8 km/h (2 Bft)
27.09.2021 11:22 16,7 C 17,1 C 16,1 C 82 % 1016,2 hPa 0,0 l/m 5,3 km/h (1 Bft) W 270 13,0 C 16,1 C 0,0 km/h (0 Bft)
27.09.2021 11:20 16,7 C 17,1 C 16,1 C 82 % 1016,2 hPa 0,0 l/m 5,6 km/h (1 Bft) W 270 13,0 C 16,1 C 14,2 km/h (3 Bft)
27.09.2021 11:18 16,7 C 17,1 C 16,1 C 82 % 1016,2 hPa 0,0 l/m 5,3 km/h (1 Bft) NW 315 13,0 C 16,1 C 5,6 km/h (1 Bft)
27.09.2021 11:16 16,7 C 17,1 C 16,1 C 82 % 1016,2 hPa 0,0 l/m 5,3 km/h (1 Bft) SO 135 13,0 C 16,1 C 8,0 km/h (2 Bft)
27.09.2021 11:14 16,7 C 17,1 C 16,1 C 83 % 1016,2 hPa 0,0 l/m 5,1 km/h (1 Bft) SW 225 13,2 C 16,1 C 11,6 km/h (2 Bft)
27.09.2021 11:12 16,7 C 17,3 C 16,2 C 83 % 1016,2 hPa 0,0 l/m 5,6 km/h (1 Bft) SO 135 13,3 C 16,2 C 3,1 km/h (1 Bft)
27.09.2021 11:10 16,7 C 17,4 C 16,2 C 83 % 1016,2 hPa 0,0 l/m 5,6 km/h (1 Bft) N-NW 337 13,3 C 16,2 C 4,1 km/h (1 Bft)
27.09.2021 11:08 16,7 C 17,4 C 16,1 C 83 % 1015,9 hPa 0,0 l/m 5,6 km/h (1 Bft) S-SW 202 13,2 C 16,1 C 6,0 km/h (2 Bft)
27.09.2021 11:06 16,7 C 17,3 C 16,2 C 83 % 1015,9 hPa 0,0 l/m 5,6 km/h (1 Bft) W 270 13,3 C 16,2 C 5,3 km/h (1 Bft)
27.09.2021 11:04 16,7 C 17,3 C 16,1 C 83 % 1015,9 hPa 0,0 l/m 5,8 km/h (2 Bft) W-SW 247 13,2 C 16,1 C 15,2 km/h (3 Bft)
27.09.2021 11:02 16,7 C 17,5 C 16,2 C 83 % 1015,9 hPa 0,0 l/m 5,3 km/h (1 Bft) S-SW 202 13,3 C 16,2 C 17,1 km/h (3 Bft)
27.09.2021 11:00 16,7 C 17,5 C 16,1 C 83 % 1015,9 hPa 0,0 l/m 4,8 km/h (1 Bft) SW 225 13,2 C 16,1 C 10,4 km/h (2 Bft)
27.09.2021 10:58 16,7 C 17,5 C 16,1 C 83 % 1015,9 hPa 0,0 l/m 5,6 km/h (1 Bft) W 270 13,2 C 16,1 C 3,4 km/h (1 Bft)
27.09.2021 10:56 16,7 C 17,4 C 16,1 C 83 % 1015,9 hPa 0,0 l/m 5,6 km/h (1 Bft) NW 315 13,2 C 16,1 C 9,4 km/h (2 Bft)
27.09.2021 10:54 16,7 C 17,4 C 16,1 C 83 % 1015,9 hPa 0,0 l/m 4,8 km/h (1 Bft) W-NW 292 13,2 C 16,1 C 6,3 km/h (2 Bft)
27.09.2021 10:52 16,7 C 17,4 C 16,0 C 83 % 1015,9 hPa 0,0 l/m 5,3 km/h (1 Bft) SW 225 13,1 C 16,0 C 3,4 km/h (1 Bft)
27.09.2021 10:50 16,7 C 17,2 C 16,0 C 83 % 1015,9 hPa 0,0 l/m 5,3 km/h (1 Bft) SW 225 13,1 C 16,0 C 12,3 km/h (3 Bft)
27.09.2021 10:48 16,7 C 17,4 C 16,0 C 83 % 1016,0 hPa 0,0 l/m 5,1 km/h (1 Bft) S-SO 157 13,1 C 16,0 C 17,1 km/h (3 Bft)
27.09.2021 10:46 16,7 C 17,4 C 16,0 C 83 % 1016,0 hPa 0,0 l/m 5,1 km/h (1 Bft) NO 45 13,1 C 16,0 C 3,6 km/h (1 Bft)
27.09.2021 10:44 16,7 C 17,2 C 16,0 C 83 % 1016,0 hPa 0,0 l/m 5,3 km/h (1 Bft) N-NO 22 13,1 C 16,0 C 0,0 km/h (0 Bft)
27.09.2021 10:42 16,7 C 17,2 C 16,0 C 83 % 1016,0 hPa 0,0 l/m 5,8 km/h (2 Bft) W-SW 247 13,1 C 16,0 C 7,2 km/h (2 Bft)
27.09.2021 10:40 16,7 C 17,2 C 16,0 C 83 % 1016,0 hPa 0,0 l/m 6,0 km/h (2 Bft) NW 315 13,1 C 16,0 C 6,3 km/h (2 Bft)
27.09.2021 10:38 16,7 C 17,2 C 16,0 C 83 % 1016,0 hPa 0,0 l/m 5,8 km/h (2 Bft) N-NW 337 13,1 C 16,0 C 9,7 km/h (2 Bft)
27.09.2021 10:36 16,7 C 17,3 C 15,9 C 83 % 1016,0 hPa 0,0 l/m 6,3 km/h (2 Bft) W-SW 247 13,0 C 15,9 C 12,6 km/h (3 Bft)
27.09.2021 10:34 16,7 C 17,2 C 15,9 C 83 % 1016,0 hPa 0,0 l/m 7,2 km/h (2 Bft) O-SO 112 13,0 C 15,9 C 6,8 km/h (2 Bft)
27.09.2021 10:32 16,7 C 17,2 C 15,9 C 83 % 1016,0 hPa 0,0 l/m 7,0 km/h (2 Bft) W 270 13,0 C 15,9 C 10,1 km/h (2 Bft)
27.09.2021 10:30 16,7 C 17,1 C 15,9 C 83 % 1016,0 hPa 0,0 l/m 7,2 km/h (2 Bft) S-SO 157 13,0 C 15,9 C 19,6 km/h (3 Bft)
27.09.2021 10:28 16,7 C 17,1 C 15,9 C 83 % 1015,9 hPa 0,0 l/m 8,2 km/h (2 Bft) O-SO 112 13,0 C 15,9 C 6,5 km/h (2 Bft)
27.09.2021 10:26 16,6 C 17,0 C 15,8 C 83 % 1015,9 hPa 0,0 l/m 8,4 km/h (2 Bft) S-SW 202 12,9 C 15,8 C 22,2 km/h (4 Bft)
27.09.2021 10:24 16,7 C 17,0 C 15,8 C 83 % 1015,9 hPa 0,0 l/m 7,7 km/h (2 Bft) SW 225 12,9 C 15,8 C 13,0 km/h (3 Bft)
27.09.2021 10:22 16,6 C 17,0 C 15,8 C 83 % 1015,9 hPa 0,0 l/m 7,7 km/h (2 Bft) W-SW 247 12,9 C 15,8 C 14,5 km/h (3 Bft)
27.09.2021 10:20 16,6 C 16,9 C 15,8 C 83 % 1015,9 hPa 0,0 l/m 7,5 km/h (2 Bft) NW 315 12,9 C 15,8 C 8,7 km/h (2 Bft)
27.09.2021 10:18 16,6 C 16,9 C 15,7 C 83 % 1015,9 hPa 0,0 l/m 7,2 km/h (2 Bft) W-SW 247 12,8 C 15,7 C 12,1 km/h (2 Bft)
27.09.2021 10:16 16,6 C 16,9 C 15,8 C 83 % 1015,9 hPa 0,0 l/m 6,5 km/h (2 Bft) N 360 12,9 C 15,8 C 6,0 km/h (2 Bft)
27.09.2021 10:14 16,6 C 16,9 C 15,7 C 83 % 1015,9 hPa 0,0 l/m 6,5 km/h (2 Bft) W-SW 247 12,8 C 15,7 C 14,2 km/h (3 Bft)
27.09.2021 10:12 16,6 C 16,9 C 15,7 C 83 % 1015,9 hPa 0,0 l/m 7,0 km/h (2 Bft) W-SW 247 12,8 C 15,7 C 7,0 km/h (2 Bft)
27.09.2021 10:10 16,6 C 16,9 C 15,7 C 83 % 1015,9 hPa 0,0 l/m 6,8 km/h (2 Bft) NW 315 12,8 C 15,7 C 9,2 km/h (2 Bft)
27.09.2021 10:08 16,6 C 16,8 C 15,7 C 83 % 1015,7 hPa 0,0 l/m 6,3 km/h (2 Bft) SW 225 12,8 C 15,7 C 7,2 km/h (2 Bft)
27.09.2021 10:06 16,6 C 16,9 C 15,7 C 83 % 1015,7 hPa 0,0 l/m 6,5 km/h (2 Bft) N 360 12,8 C 15,7 C 2,4 km/h (1 Bft)
27.09.2021 10:04 16,6 C 16,8 C 15,7 C 83 % 1015,7 hPa 0,0 l/m 6,8 km/h (2 Bft) SO 135 12,8 C 15,7 C 6,8 km/h (2 Bft)
27.09.2021 10:02 16,6 C 16,8 C 15,7 C 83 % 1015,7 hPa 0,0 l/m 6,5 km/h (2 Bft) N-NW 337 12,8 C 15,7 C 8,7 km/h (2 Bft)
27.09.2021 10:00 16,6 C 16,8 C 15,6 C 83 % 1015,7 hPa 0,0 l/m 6,8 km/h (2 Bft) S-SO 157 12,7 C 15,6 C 11,6 km/h (2 Bft)
27.09.2021 09:58 16,6 C 16,8 C 15,6 C 83 % 1015,7 hPa 0,0 l/m 7,0 km/h (2 Bft) W-NW 292 12,7 C 15,6 C 8,9 km/h (2 Bft)
27.09.2021 09:56 16,6 C 16,8 C 15,6 C 83 % 1015,7 hPa 0,0 l/m 7,0 km/h (2 Bft) N 360 12,7 C 15,6 C 2,9 km/h (1 Bft)
27.09.2021 09:54 16,6 C 16,7 C 15,6 C 83 % 1015,7 hPa 0,0 l/m 7,0 km/h (2 Bft) S 180 12,7 C 15,6 C 23,7 km/h (4 Bft)
27.09.2021 09:52 16,6 C 16,7 C 15,6 C 83 % 1015,7 hPa 0,0 l/m 6,5 km/h (2 Bft) W-SW 247 12,7 C 15,6 C 5,6 km/h (1 Bft)
27.09.2021 09:50 16,6 C 16,6 C 15,6 C 83 % 1015,7 hPa 0,0 l/m 7,0 km/h (2 Bft) S 180 12,7 C 15,6 C 10,1 km/h (2 Bft)
27.09.2021 09:48 16,6 C 16,5 C 15,5 C 83 % 1015,7 hPa 0,0 l/m 6,5 km/h (2 Bft) SO 135 12,6 C 15,5 C 7,0 km/h (2 Bft)
27.09.2021 09:46 16,6 C 16,6 C 15,5 C 83 % 1015,7 hPa 0,0 l/m 6,8 km/h (2 Bft) NW 315 12,6 C 15,5 C 4,6 km/h (1 Bft)
27.09.2021 09:44 16,6 C 16,5 C 15,5 C 83 % 1015,7 hPa 0,0 l/m 7,0 km/h (2 Bft) NW 315 12,6 C 15,5 C 6,5 km/h (2 Bft)
27.09.2021 09:42 16,6 C 16,5 C 15,5 C 83 % 1015,7 hPa 0,0 l/m 7,2 km/h (2 Bft) SW 225 12,6 C 15,5 C 7,2 km/h (2 Bft)
27.09.2021 09:40 16,6 C 16,4 C 15,5 C 83 % 1015,7 hPa 0,0 l/m 6,0 km/h (2 Bft) SW 225 12,6 C 15,5 C 17,1 km/h (3 Bft)
27.09.2021 09:38 16,6 C 16,4 C 15,5 C 83 % 1015,7 hPa 0,0 l/m 6,0 km/h (2 Bft) O 90 12,6 C 15,5 C 6,0 km/h (2 Bft)
27.09.2021 09:36 16,6 C 16,3 C 15,5 C 83 % 1015,7 hPa 0,0 l/m 5,8 km/h (2 Bft) S 180 12,6 C 15,5 C 8,4 km/h (2 Bft)
27.09.2021 09:34 16,6 C 16,3 C 15,5 C 83 % 1015,7 hPa 0,0 l/m 4,8 km/h (1 Bft) W 270 12,6 C 15,5 C 7,2 km/h (2 Bft)
27.09.2021 09:32 16,6 C 16,2 C 15,4 C 83 % 1015,7 hPa 0,0 l/m 5,3 km/h (1 Bft) S 180 12,5 C 15,4 C 12,3 km/h (3 Bft)
27.09.2021 09:30 16,6 C 16,2 C 15,4 C 83 % 1015,7 hPa 0,0 l/m 5,6 km/h (1 Bft) SW 225 12,5 C 15,4 C 10,4 km/h (2 Bft)
27.09.2021 09:28 16,6 C 16,2 C 15,4 C 83 % 1015,8 hPa 0,0 l/m 5,8 km/h (2 Bft) W-SW 247 12,5 C 15,4 C 5,6 km/h (1 Bft)
27.09.2021 09:26 16,6 C 16,2 C 15,5 C 83 % 1015,8 hPa 0,0 l/m 6,3 km/h (2 Bft) SO 135 12,6 C 15,5 C 5,8 km/h (2 Bft)
27.09.2021 09:24 16,6 C 16,2 C 15,5 C 83 % 1015,8 hPa 0,0 l/m 7,2 km/h (2 Bft) NW 315 12,6 C 15,5 C 2,4 km/h (1 Bft)
27.09.2021 09:22 16,6 C 16,2 C 15,5 C 83 % 1015,8 hPa 0,0 l/m 7,5 km/h (2 Bft) SO 135 12,6 C 15,5 C 10,6 km/h (2 Bft)
27.09.2021 09:20 16,6 C 16,2 C 15,5 C 83 % 1015,8 hPa 0,0 l/m 7,5 km/h (2 Bft) N-NO 22 12,6 C 15,5 C 4,3 km/h (1 Bft)
27.09.2021 09:18 16,6 C 16,2 C 15,5 C 83 % 1015,8 hPa 0,0 l/m 7,5 km/h (2 Bft) NO 45 12,6 C 15,5 C 9,4 km/h (2 Bft)
27.09.2021 09:16 16,6 C 16,3 C 15,5 C 83 % 1015,8 hPa 0,0 l/m 7,0 km/h (2 Bft) SO 135 12,6 C 15,5 C 8,4 km/h (2 Bft)
27.09.2021 09:14 16,6 C 16,3 C 15,5 C 83 % 1015,8 hPa 0,0 l/m 7,5 km/h (2 Bft) W-SW 247 12,6 C 15,5 C 25,1 km/h (4 Bft)
27.09.2021 09:12 16,5 C 16,4 C 15,5 C 83 % 1015,8 hPa 0,0 l/m 6,5 km/h (2 Bft) O-SO 112 12,6 C 15,5 C 13,0 km/h (3 Bft)
27.09.2021 09:10 16,5 C 16,4 C 15,5 C 83 % 1015,8 hPa 0,0 l/m 6,3 km/h (2 Bft) S 180 12,6 C 15,5 C 15,7 km/h (3 Bft)
27.09.2021 09:08 16,5 C 16,4 C 15,5 C 83 % 1015,6 hPa 0,0 l/m 6,5 km/h (2 Bft) O-NO 67 12,6 C 15,5 C 15,7 km/h (3 Bft)
27.09.2021 09:06 16,5 C 16,4 C 15,5 C 83 % 1015,6 hPa 0,0 l/m 6,0 km/h (2 Bft) W 270 12,6 C 15,5 C 3,1 km/h (1 Bft)
27.09.2021 09:04 16,5 C 16,4 C 15,5 C 83 % 1015,6 hPa 0,0 l/m 6,3 km/h (2 Bft) W 270 12,6 C 15,5 C 8,7 km/h (2 Bft)
27.09.2021 09:02 16,5 C 16,4 C 15,5 C 83 % 1015,6 hPa 0,0 l/m 6,8 km/h (2 Bft) N-NO 22 12,6 C 15,5 C 8,9 km/h (2 Bft)
27.09.2021 09:00 16,5 C 16,4 C 15,5 C 83 % 1015,6 hPa 0,0 l/m 6,8 km/h (2 Bft) W-SW 247 12,6 C 15,5 C 0,0 km/h (0 Bft)
27.09.2021 08:58 16,5 C 16,4 C 15,5 C 83 % 1015,6 hPa 0,0 l/m 7,2 km/h (2 Bft) W-SW 247 12,6 C 15,5 C 12,3 km/h (3 Bft)
27.09.2021 08:56 16,5 C 16,4 C 15,5 C 83 % 1015,6 hPa 0,0 l/m 7,2 km/h (2 Bft) N 360 12,6 C 15,5 C 6,5 km/h (2 Bft)
27.09.2021 08:54 16,5 C 16,4 C 15,5 C 83 % 1015,6 hPa 0,0 l/m 6,8 km/h (2 Bft) SW 225 12,6 C 15,5 C 12,1 km/h (2 Bft)
27.09.2021 08:52 16,5 C 16,4 C 15,5 C 83 % 1015,6 hPa 0,0 l/m 6,8 km/h (2 Bft) NW 315 12,6 C 15,5 C 12,6 km/h (3 Bft)
27.09.2021 08:50 16,5 C 16,4 C 15,5 C 83 % 1015,6 hPa 0,0 l/m 6,3 km/h (2 Bft) S-SO 157 12,6 C 15,5 C 12,1 km/h (2 Bft)
27.09.2021 08:48 16,5 C 16,4 C 15,5 C 83 % 1015,5 hPa 0,0 l/m 6,0 km/h (2 Bft) SW 225 12,6 C 15,5 C 21,2 km/h (4 Bft)
27.09.2021 08:46 16,5 C 16,4 C 15,5 C 83 % 1015,5 hPa 0,0 l/m 6,3 km/h (2 Bft) W-SW 247 12,6 C 15,5 C 11,8 km/h (2 Bft)
27.09.2021 08:44 16,5 C 16,4 C 15,5 C 83 % 1015,5 hPa 0,0 l/m 6,8 km/h (2 Bft) SO 135 12,6 C 15,5 C 6,8 km/h (2 Bft)
27.09.2021 08:42 16,5 C 16,4 C 15,5 C 83 % 1015,5 hPa 0,0 l/m 6,8 km/h (2 Bft) SW 225 12,6 C 15,5 C 6,8 km/h (2 Bft)
27.09.2021 08:40 16,5 C 16,4 C 15,5 C 83 % 1015,5 hPa 0,0 l/m 7,0 km/h (2 Bft) W-SW 247 12,6 C 15,5 C 4,3 km/h (1 Bft)
27.09.2021 08:38 16,5 C 16,4 C 15,5 C 83 % 1015,5 hPa 0,0 l/m 6,8 km/h (2 Bft) W-NW 292 12,6 C 15,5 C 28,7 km/h (4 Bft)
27.09.2021 08:36 16,5 C 16,4 C 15,5 C 83 % 1015,5 hPa 0,0 l/m 6,5 km/h (2 Bft) S-SW 202 12,6 C 15,5 C 28,7 km/h (4 Bft)
27.09.2021 08:34 16,5 C 16,4 C 15,5 C 83 % 1015,5 hPa 0,0 l/m 5,3 km/h (1 Bft) S-SO 157 12,6 C 15,5 C 4,1 km/h (1 Bft)
27.09.2021 08:32 16,5 C 16,4 C 15,6 C 83 % 1015,5 hPa 0,0 l/m 5,1 km/h (1 Bft) N-NW 337 12,7 C 15,6 C 6,3 km/h (2 Bft)
27.09.2021 08:30 16,5 C 16,4 C 15,6 C 83 % 1015,5 hPa 0,0 l/m 5,3 km/h (1 Bft) W-SW 247 12,7 C 15,6 C 6,0 km/h (2 Bft)
27.09.2021 08:28 16,5 C 16,4 C 15,6 C 83 % 1015,5 hPa 0,0 l/m 5,8 km/h (2 Bft) W-NW 292 12,7 C 15,6 C 4,3 km/h (1 Bft)
27.09.2021 08:26 16,5 C 16,4 C 15,6 C 83 % 1015,5 hPa 0,0 l/m 6,8 km/h (2 Bft) SW 225 12,7 C 15,6 C 9,9 km/h (2 Bft)
27.09.2021 08:24 16,5 C 16,4 C 15,6 C 83 % 1015,5 hPa 0,0 l/m 6,8 km/h (2 Bft) NW 315 12,7 C 15,6 C 8,7 km/h (2 Bft)
27.09.2021 08:22 16,5 C 16,4 C 15,6 C 83 % 1015,5 hPa 0,0 l/m 7,2 km/h (2 Bft) SW 225 12,7 C 15,6 C 8,9 km/h (2 Bft)
27.09.2021 08:20 16,5 C 16,4 C 15,6 C 83 % 1015,5 hPa 0,0 l/m 7,2 km/h (2 Bft) N-NO 22 12,7 C 15,6 C 8,0 km/h (2 Bft)
27.09.2021 08:18 16,5 C 16,4 C 15,6 C 83 % 1015,5 hPa 0,0 l/m 6,3 km/h (2 Bft) W-SW 247 12,7 C 15,6 C 9,2 km/h (2 Bft)
27.09.2021 08:16 16,5 C 16,4 C 15,6 C 83 % 1015,5 hPa 0,0 l/m 6,5 km/h (2 Bft) O-SO 112 12,7 C 15,6 C 11,1 km/h (2 Bft)
27.09.2021 08:14 16,5 C 16,4 C 15,6 C 83 % 1015,5 hPa 0,0 l/m 5,8 km/h (2 Bft) SO 135 12,7 C 15,6 C 10,4 km/h (2 Bft)
27.09.2021 08:12 16,5 C 16,4 C 15,6 C 83 % 1015,5 hPa 0,0 l/m 5,8 km/h (2 Bft) SO 135 12,7 C 15,6 C 10,6 km/h (2 Bft)
27.09.2021 08:10 16,5 C 16,4 C 15,6 C 83 % 1015,5 hPa 0,0 l/m 5,1 km/h (1 Bft) W 270 12,7 C 15,6 C 4,6 km/h (1 Bft)
27.09.2021 08:08 16,5 C 16,5 C 15,6 C 83 % 1015,2 hPa 0,0 l/m 5,8 km/h (2 Bft) W-SW 247 12,7 C 15,6 C 13,0 km/h (3 Bft)
27.09.2021 08:06 16,5 C 16,5 C 15,6 C 83 % 1015,2 hPa 0,0 l/m 6,0 km/h (2 Bft) W-SW 247 12,7 C 15,6 C 10,1 km/h (2 Bft)
27.09.2021 08:04 16,5 C 16,5 C 15,6 C 83 % 1015,2 hPa 0,0 l/m 6,0 km/h (2 Bft) SO 135 12,7 C 15,6 C 8,2 km/h (2 Bft)
27.09.2021 08:02 16,5 C 16,6 C 15,6 C 83 % 1015,2 hPa 0,0 l/m 6,0 km/h (2 Bft) S-SO 157 12,7 C 15,6 C 15,2 km/h (3 Bft)
27.09.2021 08:00 16,5 C 16,6 C 15,5 C 83 % 1015,2 hPa 0,0 l/m 6,0 km/h (2 Bft) NW 315 12,6 C 15,5 C 5,8 km/h (2 Bft)
27.09.2021 07:58 16,5 C 16,6 C 15,5 C 83 % 1015,2 hPa 0,0 l/m 6,3 km/h (2 Bft) S 180 12,6 C 15,5 C 18,1 km/h (3 Bft)
27.09.2021 07:56 16,5 C 16,5 C 15,5 C 83 % 1015,2 hPa 0,0 l/m 6,0 km/h (2 Bft) W-NW 292 12,6 C 15,5 C 8,2 km/h (2 Bft)
27.09.2021 07:54 16,5 C 16,5 C 15,5 C 83 % 1015,2 hPa 0,0 l/m 5,8 km/h (2 Bft) W-SW 247 12,6 C 15,5 C 7,0 km/h (2 Bft)
27.09.2021 07:52 16,5 C 16,5 C 15,5 C 83 % 1015,2 hPa 0,0 l/m 5,6 km/h (1 Bft) SW 225 12,6 C 15,5 C 7,7 km/h (2 Bft)
27.09.2021 07:50 16,5 C 16,5 C 15,4 C 83 % 1015,2 hPa 0,0 l/m 5,6 km/h (1 Bft) S-SW 202 12,5 C 15,4 C 8,7 km/h (2 Bft)
27.09.2021 07:48 16,5 C 16,5 C 15,4 C 83 % 1015,1 hPa 0,0 l/m 5,6 km/h (1 Bft) W-SW 247 12,5 C 15,4 C 13,0 km/h (3 Bft)
27.09.2021 07:46 16,4 C 16,5 C 15,4 C 83 % 1015,1 hPa 0,0 l/m 5,8 km/h (2 Bft) NW 315 12,5 C 15,4 C 11,6 km/h (2 Bft)
27.09.2021 07:44 16,4 C 16,5 C 15,4 C 83 % 1015,1 hPa 0,0 l/m 5,6 km/h (1 Bft) S-SO 157 12,5 C 15,4 C 4,3 km/h (1 Bft)
27.09.2021 07:42 16,4 C 16,5 C 15,3 C 83 % 1015,1 hPa 0,0 l/m 6,0 km/h (2 Bft) W-NW 292 12,4 C 15,3 C 6,0 km/h (2 Bft)
27.09.2021 07:40 16,4 C 16,5 C 15,3 C 83 % 1015,1 hPa 0,0 l/m 6,0 km/h (2 Bft) W-SW 247 12,4 C 15,3 C 5,1 km/h (1 Bft)
27.09.2021 07:38 16,4 C 16,4 C 15,3 C 83 % 1015,1 hPa 0,0 l/m 6,5 km/h (2 Bft) W-NW 292 12,4 C 15,3 C 22,0 km/h (4 Bft)
27.09.2021 07:36 16,4 C 16,4 C 15,3 C 83 % 1015,1 hPa 0,0 l/m 6,0 km/h (2 Bft) S-SW 202 12,4 C 15,3 C 7,5 km/h (2 Bft)
27.09.2021 07:34 16,4 C 16,4 C 15,2 C 83 % 1015,1 hPa 0,0 l/m 6,3 km/h (2 Bft) SW 225 12,3 C 15,2 C 9,7 km/h (2 Bft)
27.09.2021 07:32 16,4 C 16,4 C 15,2 C 83 % 1015,1 hPa 0,0 l/m 6,3 km/h (2 Bft) S-SW 202 12,3 C 15,2 C 5,8 km/h (2 Bft)
27.09.2021 07:30 16,4 C 16,4 C 15,2 C 83 % 1015,1 hPa 0,0 l/m 5,8 km/h (2 Bft) W 270 12,3 C 15,2 C 4,3 km/h (1 Bft)
27.09.2021 07:28 16,4 C 16,4 C 15,3 C 83 % 1015,3 hPa 0,0 l/m 5,6 km/h (1 Bft) SW 225 12,4 C 15,3 C 16,7 km/h (3 Bft)
27.09.2021 07:26 16,4 C 16,4 C 15,2 C 83 % 1015,3 hPa 0,0 l/m 5,6 km/h (1 Bft) W-NW 292 12,3 C 15,2 C 3,4 km/h (1 Bft)
27.09.2021 07:24 16,4 C 16,3 C 15,2 C 83 % 1015,3 hPa 0,0 l/m 5,3 km/h (1 Bft) SW 225 12,3 C 15,2 C 10,6 km/h (2 Bft)
27.09.2021 07:22 16,4 C 16,3 C 15,2 C 83 % 1015,3 hPa 0,0 l/m 5,1 km/h (1 Bft) S-SW 202 12,3 C 15,2 C 6,8 km/h (2 Bft)
27.09.2021 07:20 16,4 C 16,3 C 15,1 C 83 % 1015,3 hPa 0,0 l/m 5,6 km/h (1 Bft) NO 45 12,2 C 15,1 C 6,3 km/h (2 Bft)
27.09.2021 07:18 16,4 C 16,2 C 15,1 C 83 % 1015,3 hPa 0,0 l/m 5,6 km/h (1 Bft) O 90 12,2 C 15,1 C 5,3 km/h (1 Bft)
27.09.2021 07:16 16,4 C 16,2 C 15,1 C 83 % 1015,3 hPa 0,0 l/m 5,1 km/h (1 Bft) W 270 12,2 C 15,1 C 3,9 km/h (1 Bft)
27.09.2021 07:14 16,4 C 16,1 C 15,0 C 83 % 1015,3 hPa 0,0 l/m 4,8 km/h (1 Bft) W-SW 247 12,1 C 15,0 C 6,0 km/h (2 Bft)
27.09.2021 07:12 16,4 C 16,1 C 15,0 C 83 % 1015,3 hPa 0,0 l/m 4,8 km/h (1 Bft) N-NW 337 12,1 C 15,0 C 7,5 km/h (2 Bft)
27.09.2021 07:10 16,4 C 16,0 C 14,9 C 85 % 1015,3 hPa 0,0 l/m 4,6 km/h (1 Bft) S 180 12,4 C 14,9 C 14,2 km/h (3 Bft)
27.09.2021 07:08 16,4 C 16,0 C 14,8 C 85 % 1015,1 hPa 0,0 l/m 3,9 km/h (1 Bft) W 270 12,3 C 14,8 C 14,2 km/h (3 Bft)
27.09.2021 07:06 16,4 C 15,9 C 14,7 C 85 % 1015,1 hPa 0,0 l/m 3,1 km/h (1 Bft) N-NO 22 12,2 C 14,7 C 2,9 km/h (1 Bft)
27.09.2021 07:04 16,4 C 15,8 C 14,5 C 85 % 1015,1 hPa 0,0 l/m 2,7 km/h (1 Bft) N-NW 337 12,0 C 14,5 C 6,5 km/h (2 Bft)
27.09.2021 07:02 16,4 C 15,7 C 14,6 C 85 % 1015,1 hPa 0,0 l/m 2,7 km/h (1 Bft) NW 315 12,1 C 14,6 C 3,6 km/h (1 Bft)
27.09.2021 07:00 16,4 C 15,7 C 14,5 C 85 % 1015,1 hPa 0,0 l/m 2,9 km/h (1 Bft) N-NW 337 12,0 C 14,5 C 8,9 km/h (2 Bft)
27.09.2021 06:58 16,4 C 15,6 C 14,4 C 85 % 1015,1 hPa 0,0 l/m 2,7 km/h (1 Bft) NW 315 11,9 C 14,4 C 0,0 km/h (0 Bft)
27.09.2021 06:56 16,4 C 15,5 C 14,4 C 85 % 1015,1 hPa 0,0 l/m 2,7 km/h (1 Bft) NO 45 11,9 C 14,4 C 4,6 km/h (1 Bft)
27.09.2021 06:54 16,4 C 15,5 C 14,3 C 85 % 1015,1 hPa 0,0 l/m 2,2 km/h (1 Bft) NW 315 11,8 C 14,3 C 0,0 km/h (0 Bft)
27.09.2021 06:52 16,4 C 15,3 C 14,2 C 85 % 1015,1 hPa 0,0 l/m 2,4 km/h (1 Bft) W-SW 247 11,7 C 14,2 C 5,8 km/h (2 Bft)
27.09.2021 06:50 16,4 C 15,2 C 14,2 C 85 % 1015,1 hPa 0,0 l/m 2,4 km/h (1 Bft) W-SW 247 11,7 C 14,2 C 3,1 km/h (1 Bft)
27.09.2021 06:48 16,4 C 15,2 C 14,2 C 85 % 1014,9 hPa 0,0 l/m 2,2 km/h (1 Bft) NW 315 11,7 C 14,2 C 7,5 km/h (2 Bft)
27.09.2021 06:46 16,4 C 15,2 C 14,2 C 85 % 1014,9 hPa 0,0 l/m 1,9 km/h (1 Bft) S-SW 202 11,7 C 14,2 C 2,4 km/h (1 Bft)
27.09.2021 06:44 16,4 C 15,2 C 14,2 C 85 % 1014,9 hPa 0,0 l/m 2,4 km/h (1 Bft) W 270 11,7 C 14,2 C 2,7 km/h (1 Bft)
27.09.2021 06:42 16,4 C 15,2 C 14,2 C 85 % 1014,9 hPa 0,0 l/m 2,2 km/h (1 Bft) O-SO 112 11,7 C 14,2 C 5,1 km/h (1 Bft)
27.09.2021 06:40 16,4 C 15,2 C 14,2 C 85 % 1014,9 hPa 0,0 l/m 2,4 km/h (1 Bft) W-SW 247 11,7 C 14,2 C 5,6 km/h (1 Bft)
27.09.2021 06:38 16,4 C 15,2 C 14,2 C 85 % 1014,9 hPa 0,0 l/m 2,2 km/h (1 Bft) W 270 11,7 C 14,2 C 5,8 km/h (2 Bft)
27.09.2021 06:36 16,4 C 15,2 C 14,2 C 85 % 1014,9 hPa 0,0 l/m 1,9 km/h (1 Bft) S 180 11,7 C 14,2 C 2,7 km/h (1 Bft)
27.09.2021 06:34 16,4 C 15,2 C 14,1 C 85 % 1014,9 hPa 0,0 l/m 1,7 km/h (1 Bft) O-SO 112 11,6 C 14,1 C 0,0 km/h (0 Bft)
27.09.2021 06:32 16,4 C 15,2 C 14,1 C 85 % 1014,9 hPa 0,0 l/m 1,7 km/h (1 Bft) NO 45 11,6 C 14,1 C 0,0 km/h (0 Bft)
27.09.2021 06:30 16,4 C 15,1 C 14,1 C 85 % 1014,9 hPa 0,0 l/m 1,2 km/h (1 Bft) SW 225 11,6 C 14,1 C 8,0 km/h (2 Bft)
27.09.2021 06:28 16,4 C 15,1 C 14,1 C 85 % 1015,1 hPa 0,0 l/m 0,7 km/h (0 Bft) W-NW 292 11,6 C 14,1 C 0,0 km/h (0 Bft)
27.09.2021 06:26 16,4 C 15,1 C 14,0 C 85 % 1015,1 hPa 0,0 l/m 0,5 km/h (0 Bft) N-NW 337 11,5 C 14,0 C 2,7 km/h (1 Bft)
27.09.2021 06:24 16,4 C 15,1 C 14,0 C 85 % 1015,1 hPa 0,0 l/m 0,5 km/h (0 Bft) O-NO 67 11,5 C 14,0 C 3,1 km/h (1 Bft)
27.09.2021 06:22 16,4 C 15,0 C 14,0 C 85 % 1015,1 hPa 0,0 l/m 0,5 km/h (0 Bft) NW 315 11,5 C 14,0 C 0,0 km/h (0 Bft)
27.09.2021 06:20 16,4 C 15,0 C 13,9 C 85 % 1015,1 hPa 0,0 l/m 0,5 km/h (0 Bft) W 270 11,4 C 13,9 C 0,0 km/h (0 Bft)
27.09.2021 06:18 16,4 C 14,9 C 13,9 C 85 % 1015,1 hPa 0,0 l/m 0,7 km/h (0 Bft) W-NW 292 11,4 C 13,9 C 0,0 km/h (0 Bft)
27.09.2021 06:16 16,4 C 14,9 C 13,9 C 85 % 1015,1 hPa 0,0 l/m 0,7 km/h (0 Bft) NW 315 11,4 C 13,9 C 0,0 km/h (0 Bft)
27.09.2021 06:14 16,5 C 14,9 C 13,9 C 85 % 1015,1 hPa 0,0 l/m 1,0 km/h (0 Bft) N-NW 337 11,4 C 13,9 C 4,3 km/h (1 Bft)
27.09.2021 06:12 16,5 C 14,9 C 13,9 C 85 % 1015,1 hPa 0,0 l/m 0,7 km/h (0 Bft) W 270 11,4 C 13,9 C 0,0 km/h (0 Bft)
27.09.2021 06:10 16,5 C 14,9 C 13,9 C 85 % 1015,1 hPa 0,0 l/m 1,0 km/h (0 Bft) NW 315 11,4 C 13,9 C 0,0 km/h (0 Bft)
27.09.2021 06:08 16,5 C 14,9 C 13,8 C 85 % 1015,4 hPa 0,0 l/m 1,0 km/h (0 Bft) N-NW 337 11,3 C 13,8 C 2,7 km/h (1 Bft)
27.09.2021 06:06 16,5 C 14,8 C 13,8 C 85 % 1015,4 hPa 0,0 l/m 1,2 km/h (1 Bft) O-SO 112 11,3 C 13,8 C 5,3 km/h (1 Bft)
27.09.2021 06:04 16,5 C 14,8 C 13,8 C 85 % 1015,4 hPa 0,0 l/m 1,2 km/h (1 Bft) N-NO 22 11,3 C 13,8 C 0,0 km/h (0 Bft)
27.09.2021 06:02 16,5 C 14,8 C 13,8 C 85 % 1015,4 hPa 0,0 l/m 1,4 km/h (1 Bft) W-NW 292 11,3 C 13,8 C 0,0 km/h (0 Bft)
27.09.2021 06:00 16,5 C 14,8 C 13,8 C 85 % 1015,4 hPa 0,0 l/m 1,4 km/h (1 Bft) W-NW 292 11,3 C 13,8 C 2,7 km/h (1 Bft)
27.09.2021 05:58 16,5 C 14,8 C 13,8 C 85 % 1015,4 hPa 0,0 l/m 1,7 km/h (1 Bft) NW 315 11,3 C 13,8 C 0,0 km/h (0 Bft)
27.09.2021 05:56 16,5 C 14,8 C 13,7 C 85 % 1015,4 hPa 0,0 l/m 1,9 km/h (1 Bft) S-SO 157 11,2 C 13,7 C 5,1 km/h (1 Bft)
27.09.2021 05:54 16,5 C 14,7 C 13,7 C 85 % 1015,4 hPa 0,0 l/m 1,9 km/h (1 Bft) W-SW 247 11,2 C 13,7 C 2,9 km/h (1 Bft)
27.09.2021 05:52 16,5 C 14,7 C 13,6 C 85 % 1015,4 hPa 0,0 l/m 1,7 km/h (1 Bft) NO 45 11,1 C 13,6 C 5,1 km/h (1 Bft)
27.09.2021 05:50 16,5 C 14,5 C 13,6 C 85 % 1015,4 hPa 0,0 l/m 1,2 km/h (1 Bft) S-SO 157 11,1 C 13,6 C 5,8 km/h (2 Bft)
27.09.2021 05:48 16,5 C 14,5 C 13,6 C 85 % 1015,3 hPa 0,0 l/m 1,0 km/h (0 Bft) O-NO 67 11,1 C 13,6 C 3,4 km/h (1 Bft)
27.09.2021 05:46 16,5 C 14,4 C 13,5 C 85 % 1015,3 hPa 0,0 l/m 0,5 km/h (0 Bft) W-SW 247 11,0 C 13,5 C 5,6 km/h (1 Bft)
27.09.2021 05:44 16,5 C 14,1 C 13,4 C 85 % 1015,3 hPa 0,0 l/m 0,2 km/h (0 Bft) W-SW 247 10,9 C 13,4 C 0,0 km/h (0 Bft)
27.09.2021 05:42 16,5 C 13,9 C 13,3 C 85 % 1015,3 hPa 0,0 l/m 0,2 km/h (0 Bft) W-SW 247 10,8 C 13,3 C 0,0 km/h (0 Bft)
27.09.2021 05:40 16,5 C 14,0 C 13,3 C 85 % 1015,3 hPa 0,0 l/m 0,2 km/h (0 Bft) W-NW 292 10,8 C 13,3 C 0,0 km/h (0 Bft)
27.09.2021 05:38 16,5 C 14,1 C 13,3 C 85 % 1015,3 hPa 0,0 l/m 0,5 km/h (0 Bft) W-NW 292 10,8 C 13,3 C 0,0 km/h (0 Bft)
27.09.2021 05:36 16,5 C 14,1 C 13,2 C 85 % 1015,3 hPa 0,0 l/m 0,5 km/h (0 Bft) W-NW 292 10,7 C 13,2 C 0,0 km/h (0 Bft)
27.09.2021 05:34 16,5 C 14,1 C 13,2 C 85 % 1015,3 hPa 0,0 l/m 0,2 km/h (0 Bft) SW 225 10,7 C 13,2 C 0,0 km/h (0 Bft)
27.09.2021 05:32 16,5 C 14,0 C 13,1 C 83 % 1015,3 hPa 0,0 l/m 0,2 km/h (0 Bft) S-SO 157 10,3 C 13,1 C 0,0 km/h (0 Bft)
27.09.2021 05:30 16,5 C 13,9 C 13,1 C 83 % 1015,3 hPa 0,0 l/m 0,2 km/h (0 Bft) S-SO 157 10,3 C 13,1 C 0,0 km/h (0 Bft)
27.09.2021 05:28 16,5 C 13,8 C 13,1 C 83 % 1015,2 hPa 0,0 l/m 0,2 km/h (0 Bft) S 180 10,3 C 13,1 C 5,1 km/h (1 Bft)
27.09.2021 05:26 16,5 C 13,7 C 13,1 C 83 % 1015,2 hPa 0,0 l/m 0,0 km/h (0 Bft) S-SW 202 10,3 C 13,1 C 0,0 km/h (0 Bft)
27.09.2021 05:24 16,5 C 13,7 C 13,1 C 83 % 1015,2 hPa 0,0 l/m 0,0 km/h (0 Bft) S 180 10,3 C 13,1 C 0,0 km/h (0 Bft)
27.09.2021 05:22 16,5 C 13,7 C 13,1 C 83 % 1015,2 hPa 0,0 l/m 0,0 km/h (0 Bft) S-SO 157 10,3 C 13,1 C 0,0 km/h (0 Bft)
27.09.2021 05:20 16,5 C 13,6 C 13,1 C 83 % 1015,2 hPa 0,0 l/m 0,0 km/h (0 Bft) S-SO 157 10,3 C 13,1 C 0,0 km/h (0 Bft)
27.09.2021 05:18 16,5 C 13,6 C 13,1 C 83 % 1015,2 hPa 0,0 l/m 0,0 km/h (0 Bft) S-SO 157 10,3 C 13,1 C 0,0 km/h (0 Bft)
27.09.2021 05:16 16,5 C 13,6 C 13,1 C 83 % 1015,2 hPa 0,0 l/m 0,0 km/h (0 Bft) S-SO 157 10,3 C 13,1 C 0,0 km/h (0 Bft)
27.09.2021 05:14 16,5 C 13,6 C 13,1 C 83 % 1015,2 hPa 0,0 l/m 0,0 km/h (0 Bft) S-SO 157 10,3 C 13,1 C 0,0 km/h (0 Bft)
27.09.2021 05:12 16,5 C 13,7 C 13,1 C 83 % 1015,2 hPa 0,0 l/m 0,0 km/h (0 Bft) S-SO 157 10,3 C 13,1 C 0,0 km/h (0 Bft)
27.09.2021 05:10 16,5 C 13,8 C 13,1 C 83 % 1015,2 hPa 0,0 l/m 0,2 km/h (0 Bft) S-SO 157 10,3 C 13,1 C 0,0 km/h (0 Bft)
27.09.2021 05:08 16,5 C 13,8 C 13,1 C 83 % 1015,2 hPa 0,0 l/m 0,2 km/h (0 Bft) S-SO 157 10,3 C 13,1 C 0,0 km/h (0 Bft)
27.09.2021 05:06 16,5 C 13,7 C 13,1 C 83 % 1015,2 hPa 0,0 l/m 0,2 km/h (0 Bft) S-SO 157 10,3 C 13,1 C 0,0 km/h (0 Bft)
27.09.2021 05:04 16,5 C 13,7 C 13,1 C 83 % 1015,2 hPa 0,0 l/m 0,2 km/h (0 Bft) S-SO 157 10,3 C 13,1 C 0,0 km/h (0 Bft)
27.09.2021 05:02 16,5 C 13,8 C 13,1 C 83 % 1015,2 hPa 0,0 l/m 0,5 km/h (0 Bft) S-SO 157 10,3 C 13,1 C 0,0 km/h (0 Bft)
27.09.2021 05:00 16,5 C 13,8 C 13,0 C 83 % 1015,2 hPa 0,0 l/m 0,2 km/h (0 Bft) S-SO 157 10,2 C 13,0 C 0,0 km/h (0 Bft)
27.09.2021 04:58 16,5 C 13,8 C 13,0 C 83 % 1015,2 hPa 0,0 l/m 0,2 km/h (0 Bft) S-SO 157 10,2 C 13,0 C 0,0 km/h (0 Bft)
27.09.2021 04:56 16,5 C 13,9 C 13,0 C 83 % 1015,2 hPa 0,0 l/m 0,2 km/h (0 Bft) S-SO 157 10,2 C 13,0 C 0,0 km/h (0 Bft)
27.09.2021 04:54 16,5 C 13,9 C 13,0 C 83 % 1015,2 hPa 0,0 l/m 0,2 km/h (0 Bft) S-SO 157 10,2 C 13,0 C 0,0 km/h (0 Bft)
27.09.2021 04:52 16,5 C 13,9 C 13,0 C 83 % 1015,2 hPa 0,0 l/m 0,2 km/h (0 Bft) S 180 10,2 C 13,0 C 2,9 km/h (1 Bft)
27.09.2021 04:50 16,5 C 13,9 C 13,0 C 83 % 1015,2 hPa 0,0 l/m 0,2 km/h (0 Bft) S 180 10,2 C 13,0 C 0,0 km/h (0 Bft)
27.09.2021 04:48 16,5 C 13,9 C 13,0 C 83 % 1015,1 hPa 0,0 l/m 0,0 km/h (0 Bft) S-SO 157 10,2 C 13,0 C 2,4 km/h (1 Bft)
27.09.2021 04:46 16,5 C 13,9 C 13,0 C 83 % 1015,1 hPa 0,0 l/m 0,0 km/h (0 Bft) N-NW 337 10,2 C 13,0 C 0,0 km/h (0 Bft)
27.09.2021 04:44 16,5 C 13,9 C 13,0 C 83 % 1015,1 hPa 0,0 l/m 0,2 km/h (0 Bft) SW 225 10,2 C 13,0 C 0,0 km/h (0 Bft)
27.09.2021 04:42 16,5 C 13,9 C 13,0 C 83 % 1015,1 hPa 0,0 l/m 0,2 km/h (0 Bft) SW 225 10,2 C 13,0 C 0,0 km/h (0 Bft)
27.09.2021 04:40 16,5 C 13,9 C 13,0 C 83 % 1015,1 hPa 0,0 l/m 0,2 km/h (0 Bft) SW 225 10,2 C 13,0 C 0,0 km/h (0 Bft)
27.09.2021 04:38 16,5 C 13,8 C 13,0 C 83 % 1015,1 hPa 0,0 l/m 0,2 km/h (0 Bft) SW 225 10,2 C 13,0 C 0,0 km/h (0 Bft)
27.09.2021 04:36 16,5 C 13,9 C 13,0 C 83 % 1015,1 hPa 0,0 l/m 0,2 km/h (0 Bft) SW 225 10,2 C 13,0 C 0,0 km/h (0 Bft)
27.09.2021 04:34 16,5 C 13,9 C 13,0 C 83 % 1015,1 hPa 0,0 l/m 0,0 km/h (0 Bft) S-SW 202 10,2 C 13,0 C 0,0 km/h (0 Bft)
27.09.2021 04:32 16,6 C 13,8 C 13,0 C 83 % 1015,1 hPa 0,0 l/m 0,0 km/h (0 Bft) S-SW 202 10,2 C 13,0 C 0,0 km/h (0 Bft)
27.09.2021 04:30 16,6 C 13,7 C 13,0 C 83 % 1015,1 hPa 0,0 l/m 0,0 km/h (0 Bft) SW 225 10,2 C 13,0 C 0,0 km/h (0 Bft)
27.09.2021 04:28 16,6 C 13,6 C 13,0 C 83 % 1015,1 hPa 0,0 l/m 0,0 km/h (0 Bft) S-SW 202 10,2 C 13,0 C 0,0 km/h (0 Bft)
27.09.2021 04:26 16,6 C 13,6 C 13,0 C 83 % 1015,1 hPa 0,0 l/m 0,2 km/h (0 Bft) S-SW 202 10,2 C 13,0 C 0,0 km/h (0 Bft)
27.09.2021 04:24 16,6 C 13,7 C 13,0 C 83 % 1015,1 hPa 0,0 l/m 0,2 km/h (0 Bft) S-SW 202 10,2 C 13,0 C 0,0 km/h (0 Bft)
27.09.2021 04:22 16,6 C 13,6 C 13,0 C 83 % 1015,1 hPa 0,0 l/m 0,2 km/h (0 Bft) W-SW 247 10,2 C 13,0 C 0,0 km/h (0 Bft)
27.09.2021 04:20 16,6 C 13,7 C 13,0 C 83 % 1015,1 hPa 0,0 l/m 0,2 km/h (0 Bft) W-SW 247 10,2 C 13,0 C 0,0 km/h (0 Bft)
27.09.2021 04:18 16,6 C 13,8 C 13,0 C 83 % 1015,1 hPa 0,0 l/m 0,5 km/h (0 Bft) W 270 10,2 C 13,0 C 3,1 km/h (1 Bft)
27.09.2021 04:16 16,6 C 13,8 C 13,0 C 83 % 1015,1 hPa 0,0 l/m 0,5 km/h (0 Bft) S 180 10,2 C 13,0 C 3,1 km/h (1 Bft)
27.09.2021 04:14 16,6 C 13,8 C 13,0 C 83 % 1015,1 hPa 0,0 l/m 0,5 km/h (0 Bft) NW 315 10,2 C 13,0 C 0,0 km/h (0 Bft)
27.09.2021 04:12 16,6 C 13,8 C 13,0 C 83 % 1015,1 hPa 0,0 l/m 0,7 km/h (0 Bft) SO 135 10,2 C 13,0 C 0,0 km/h (0 Bft)
27.09.2021 04:10 16,6 C 13,9 C 13,0 C 83 % 1015,1 hPa 0,0 l/m 1,4 km/h (1 Bft) NW 315 10,2 C 13,0 C 0,0 km/h (0 Bft)
27.09.2021 04:08 16,6 C 13,8 C 12,9 C 82 % 1015,0 hPa 0,0 l/m 1,7 km/h (1 Bft) SW 225 9,9 C 12,9 C 4,3 km/h (1 Bft)
27.09.2021 04:06 16,5 C 13,7 C 12,8 C 83 % 1015,0 hPa 0,0 l/m 1,7 km/h (1 Bft) S-SO 157 10,0 C 12,8 C 0,0 km/h (0 Bft)
27.09.2021 04:04 16,6 C 13,7 C 12,8 C 83 % 1015,0 hPa 0,0 l/m 1,7 km/h (1 Bft) S-SO 157 10,0 C 12,8 C 0,0 km/h (0 Bft)
27.09.2021 04:02 16,6 C 13,6 C 12,8 C 83 % 1015,0 hPa 0,0 l/m 1,7 km/h (1 Bft) W 270 10,0 C 12,8 C 5,1 km/h (1 Bft)
27.09.2021 04:00 16,6 C 13,5 C 12,8 C 83 % 1015,0 hPa 0,0 l/m 1,4 km/h (1 Bft) W-SW 247 10,0 C 12,8 C 5,6 km/h (1 Bft)
27.09.2021 03:58 16,6 C 13,5 C 12,7 C 83 % 1015,0 hPa 0,0 l/m 1,2 km/h (1 Bft) W-SW 247 9,9 C 12,7 C 11,3 km/h (2 Bft)
27.09.2021 03:56 16,6 C 13,3 C 12,7 C 83 % 1015,0 hPa 0,0 l/m 1,7 km/h (1 Bft) W-SW 247 9,9 C 12,7 C 5,8 km/h (2 Bft)
27.09.2021 03:54 16,6 C 13,3 C 12,7 C 83 % 1015,0 hPa 0,0 l/m 1,7 km/h (1 Bft) NW 315 9,9 C 12,7 C 0,0 km/h (0 Bft)
27.09.2021 03:52 16,6 C 13,3 C 12,7 C 83 % 1015,0 hPa 0,0 l/m 2,4 km/h (1 Bft) SW 225 9,9 C 12,7 C 0,0 km/h (0 Bft)
27.09.2021 03:50 16,6 C 13,2 C 12,7 C 83 % 1015,0 hPa 0,0 l/m 2,7 km/h (1 Bft) W-SW 247 9,9 C 12,7 C 3,6 km/h (1 Bft)
27.09.2021 03:48 16,6 C 13,2 C 12,7 C 83 % 1014,9 hPa 0,0 l/m 2,4 km/h (1 Bft) SW 225 9,9 C 12,7 C 10,4 km/h (2 Bft)
27.09.2021 03:46 16,6 C 13,2 C 12,7 C 83 % 1014,9 hPa 0,0 l/m 2,2 km/h (1 Bft) SW 225 9,9 C 12,7 C 3,9 km/h (1 Bft)
27.09.2021 03:44 16,6 C 13,2 C 12,7 C 83 % 1014,9 hPa 0,0 l/m 2,2 km/h (1 Bft) S 180 9,9 C 12,7 C 0,0 km/h (0 Bft)
27.09.2021 03:42 16,6 C 13,2 C 12,7 C 83 % 1014,9 hPa 0,0 l/m 2,2 km/h (1 Bft) W 270 9,9 C 12,7 C 7,2 km/h (2 Bft)
27.09.2021 03:40 16,7 C 13,1 C 12,7 C 83 % 1014,9 hPa 0,0 l/m 2,7 km/h (1 Bft) NW 315 9,9 C 12,7 C 2,4 km/h (1 Bft)
27.09.2021 03:38 16,7 C 12,8 C 12,7 C 83 % 1014,9 hPa 0,0 l/m 2,2 km/h (1 Bft) S-SO 157 9,9 C 12,7 C 8,4 km/h (2 Bft)
27.09.2021 03:36 16,7 C 12,9 C 12,7 C 83 % 1014,9 hPa 0,0 l/m 2,7 km/h (1 Bft) SW 225 9,9 C 12,7 C 3,6 km/h (1 Bft)
27.09.2021 03:34 16,7 C 12,9 C 12,7 C 83 % 1014,9 hPa 0,0 l/m 2,4 km/h (1 Bft) W 270 9,9 C 12,7 C 2,7 km/h (1 Bft)
27.09.2021 03:32 16,6 C 12,8 C 12,8 C 83 % 1014,9 hPa 0,0 l/m 1,9 km/h (1 Bft) SW 225 10,0 C 12,8 C 2,7 km/h (1 Bft)
27.09.2021 03:30 16,7 C 13,0 C 12,8 C 83 % 1014,9 hPa 0,0 l/m 1,4 km/h (1 Bft) S 180 10,0 C 12,8 C 3,9 km/h (1 Bft)
27.09.2021 03:28 16,7 C 12,9 C 12,8 C 83 % 1014,8 hPa 0,0 l/m 0,7 km/h (0 Bft) S 180 10,0 C 12,8 C 7,0 km/h (2 Bft)
27.09.2021 03:26 16,7 C 13,2 C 12,9 C 82 % 1014,8 hPa 0,0 l/m 0,2 km/h (0 Bft) S 180 9,9 C 12,9 C 4,6 km/h (1 Bft)
27.09.2021 03:24 16,7 C 13,0 C 12,9 C 82 % 1014,8 hPa 0,0 l/m 0,0 km/h (0 Bft) S 180 9,9 C 12,9 C 0,0 km/h (0 Bft)
27.09.2021 03:22 16,7 C 12,9 C 12,9 C 82 % 1014,8 hPa 0,0 l/m 0,0 km/h (0 Bft) SW 225 9,9 C 12,9 C 0,0 km/h (0 Bft)
27.09.2021 03:20 16,7 C 12,7 C 12,9 C 82 % 1014,8 hPa 0,0 l/m 0,0 km/h (0 Bft) SW 225 9,9 C 12,9 C 0,0 km/h (0 Bft)
27.09.2021 03:18 16,7 C 12,8 C 12,9 C 82 % 1014,8 hPa 0,0 l/m 0,2 km/h (0 Bft) SW 225 9,9 C 12,9 C 0,0 km/h (0 Bft)
27.09.2021 03:16 16,7 C 12,4 C 12,8 C 83 % 1014,8 hPa 0,0 l/m 0,2 km/h (0 Bft) SW 225 10,0 C 12,8 C 0,0 km/h (0 Bft)
27.09.2021 03:14 16,7 C 11,9 C 12,8 C 83 % 1014,8 hPa 0,0 l/m 0,2 km/h (0 Bft) SW 225 10,0 C 12,8 C 0,0 km/h (0 Bft)
27.09.2021 03:12 16,7 C 11,8 C 12,8 C 83 % 1014,8 hPa 0,0 l/m 0,0 km/h (0 Bft) S-SO 157 10,0 C 12,8 C 0,0 km/h (0 Bft)
27.09.2021 03:10 16,7 C 11,8 C 12,8 C 83 % 1014,8 hPa 0,0 l/m 0,0 km/h (0 Bft) S-SO 157 10,0 C 12,8 C 0,0 km/h (0 Bft)
27.09.2021 03:08 16,7 C 11,8 C 12,8 C 83 % 1014,6 hPa 0,0 l/m 0,0 km/h (0 Bft) S-SO 157 10,0 C 12,8 C 0,0 km/h (0 Bft)
27.09.2021 03:06 16,7 C 11,8 C 12,8 C 83 % 1014,6 hPa 0,0 l/m 0,0 km/h (0 Bft) S-SO 157 10,0 C 12,8 C 0,0 km/h (0 Bft)
27.09.2021 03:04 16,7 C 11,8 C 12,8 C 83 % 1014,6 hPa 0,0 l/m 0,0 km/h (0 Bft) S-SO 157 10,0 C 12,8 C 0,0 km/h (0 Bft)
27.09.2021 03:02 16,7 C 11,4 C 12,8 C 83 % 1014,6 hPa 0,0 l/m 0,0 km/h (0 Bft) S-SO 157 10,0 C 12,8 C 0,0 km/h (0 Bft)
27.09.2021 03:00 16,7 C 11,6 C 12,8 C 83 % 1014,6 hPa 0,0 l/m 0,0 km/h (0 Bft) S-SO 157 10,0 C 12,8 C 0,0 km/h (0 Bft)
27.09.2021 02:58 16,7 C 11,5 C 12,8 C 83 % 1014,6 hPa 0,0 l/m 0,0 km/h (0 Bft) S-SO 157 10,0 C 12,8 C 0,0 km/h (0 Bft)
27.09.2021 02:56 16,8 C 11,5 C 12,8 C 83 % 1014,6 hPa 0,0 l/m 0,0 km/h (0 Bft) S-SO 157 10,0 C 12,8 C 0,0 km/h (0 Bft)
27.09.2021 02:54 16,8 C 11,2 C 12,8 C 83 % 1014,6 hPa 0,0 l/m 0,0 km/h (0 Bft) S-SO 157 10,0 C 12,8 C 0,0 km/h (0 Bft)
27.09.2021 02:52 16,8 C 11,4 C 12,9 C 82 % 1014,6 hPa 0,0 l/m 0,0 km/h (0 Bft) S-SO 157 9,9 C 12,9 C 0,0 km/h (0 Bft)
27.09.2021 02:50 16,8 C 12,0 C 12,9 C 82 % 1014,6 hPa 0,0 l/m 0,0 km/h (0 Bft) S-SO 157 9,9 C 12,9 C 0,0 km/h (0 Bft)
27.09.2021 02:48 16,8 C 12,4 C 13,0 C 82 % 1014,5 hPa 0,0 l/m 0,0 km/h (0 Bft) S-SO 157 10,0 C 13,0 C 0,0 km/h (0 Bft)
27.09.2021 02:46 16,8 C 12,1 C 13,0 C 82 % 1014,5 hPa 0,0 l/m 0,0 km/h (0 Bft) S-SO 157 10,0 C 13,0 C 0,0 km/h (0 Bft)
27.09.2021 02:44 16,8 C 12,2 C 12,9 C 82 % 1014,5 hPa 0,0 l/m 0,0 km/h (0 Bft) S-SO 157 9,9 C 12,9 C 0,0 km/h (0 Bft)
27.09.2021 02:42 16,8 C 12,1 C 12,9 C 82 % 1014,5 hPa 0,0 l/m 0,0 km/h (0 Bft) S-SO 157 9,9 C 12,9 C 0,0 km/h (0 Bft)
27.09.2021 02:40 16,8 C 11,9 C 12,9 C 82 % 1014,5 hPa 0,0 l/m 0,0 km/h (0 Bft) S-SO 157 9,9 C 12,9 C 0,0 km/h (0 Bft)
27.09.2021 02:38 16,8 C 11,1 C 12,8 C 82 % 1014,5 hPa 0,0 l/m 0,0 km/h (0 Bft) S-SO 157 9,8 C 12,8 C 0,0 km/h (0 Bft)
27.09.2021 02:36 16,8 C 11,1 C 12,8 C 82 % 1014,5 hPa 0,0 l/m 0,0 km/h (0 Bft) S-SO 157 9,8 C 12,8 C 0,0 km/h (0 Bft)
27.09.2021 02:34 16,8 C 11,4 C 12,9 C 82 % 1014,5 hPa 0,0 l/m 0,0 km/h (0 Bft) S-SO 157 9,9 C 12,9 C 0,0 km/h (0 Bft)
27.09.2021 02:32 16,8 C 10,9 C 12,9 C 82 % 1014,5 hPa 0,0 l/m 0,0 km/h (0 Bft) S-SO 157 9,9 C 12,9 C 0,0 km/h (0 Bft)
27.09.2021 02:30 16,8 C 10,9 C 13,0 C 82 % 1014,5 hPa 0,0 l/m 0,0 km/h (0 Bft) S-SO 157 10,0 C 13,0 C 0,0 km/h (0 Bft)
27.09.2021 02:28 16,8 C 11,1 C 13,1 C 82 % 1014,6 hPa 0,0 l/m 0,0 km/h (0 Bft) S-SO 157 10,1 C 13,1 C 0,0 km/h (0 Bft)
27.09.2021 02:26 16,8 C 11,4 C 13,1 C 82 % 1014,6 hPa 0,0 l/m 0,0 km/h (0 Bft) S-SO 157 10,1 C 13,1 C 0,0 km/h (0 Bft)
27.09.2021 02:24 16,8 C 11,8 C 13,1 C 82 % 1014,6 hPa 0,0 l/m 0,0 km/h (0 Bft) S-SO 157 10,1 C 13,1 C 0,0 km/h (0 Bft)
27.09.2021 02:22 16,8 C 12,1 C 13,2 C 82 % 1014,6 hPa 0,0 l/m 0,0 km/h (0 Bft) S-SO 157 10,2 C 13,2 C 0,0 km/h (0 Bft)
27.09.2021 02:20 16,8 C 12,0 C 13,2 C 82 % 1014,6 hPa 0,0 l/m 0,0 km/h (0 Bft) S 180 10,2 C 13,2 C 2,7 km/h (1 Bft)
27.09.2021 02:18 16,8 C 12,2 C 13,1 C 82 % 1014,6 hPa 0,0 l/m 0,0 km/h (0 Bft) O-SO 112 10,1 C 13,1 C 0,0 km/h (0 Bft)
27.09.2021 02:16 16,8 C 12,2 C 13,1 C 81 % 1014,6 hPa 0,0 l/m 0,0 km/h (0 Bft) O-SO 112 9,9 C 13,1 C 0,0 km/h (0 Bft)
27.09.2021 02:14 16,8 C 12,4 C 13,1 C 81 % 1014,6 hPa 0,0 l/m 0,0 km/h (0 Bft) O-SO 112 9,9 C 13,1 C 0,0 km/h (0 Bft)
27.09.2021 02:12 16,8 C 12,5 C 13,2 C 81 % 1014,6 hPa 0,0 l/m 0,0 km/h (0 Bft) O-SO 112 10,0 C 13,2 C 0,0 km/h (0 Bft)
27.09.2021 02:10 16,9 C 12,7 C 13,2 C 81 % 1014,6 hPa 0,0 l/m 0,0 km/h (0 Bft) O-SO 112 10,0 C 13,2 C 0,0 km/h (0 Bft)
27.09.2021 02:08 16,9 C 12,6 C 13,2 C 81 % 1014,3 hPa 0,0 l/m 0,0 km/h (0 Bft) O-SO 112 10,0 C 13,2 C 0,0 km/h (0 Bft)
27.09.2021 02:06 16,9 C 12,6 C 13,2 C 81 % 1014,3 hPa 0,0 l/m 0,0 km/h (0 Bft) O-SO 112 10,0 C 13,2 C 0,0 km/h (0 Bft)
27.09.2021 02:04 16,9 C 12,6 C 13,2 C 81 % 1014,3 hPa 0,0 l/m 0,0 km/h (0 Bft) O-SO 112 10,0 C 13,2 C 0,0 km/h (0 Bft)
27.09.2021 02:02 16,9 C 12,8 C 13,2 C 81 % 1014,3 hPa 0,0 l/m 0,0 km/h (0 Bft) O-SO 112 10,0 C 13,2 C 0,0 km/h (0 Bft)
27.09.2021 02:00 16,9 C 13,0 C 13,2 C 81 % 1014,3 hPa 0,0 l/m 0,0 km/h (0 Bft) O-SO 112 10,0 C 13,2 C 0,0 km/h (0 Bft)
27.09.2021 01:58 16,9 C 13,1 C 13,1 C 81 % 1014,3 hPa 0,0 l/m 0,0 km/h (0 Bft) O-SO 112 9,9 C 13,1 C 0,0 km/h (0 Bft)
27.09.2021 01:56 16,9 C 12,7 C 13,0 C 81 % 1014,3 hPa 0,0 l/m 0,0 km/h (0 Bft) O-SO 112 9,8 C 13,0 C 0,0 km/h (0 Bft)
27.09.2021 01:54 16,9 C 12,3 C 12,9 C 81 % 1014,3 hPa 0,0 l/m 0,0 km/h (0 Bft) W-SW 247 9,7 C 12,9 C 0,0 km/h (0 Bft)
27.09.2021 01:52 16,9 C 12,0 C 12,9 C 81 % 1014,3 hPa 0,0 l/m 0,0 km/h (0 Bft) O-NO 67 9,7 C 12,9 C 0,0 km/h (0 Bft)
27.09.2021 01:50 16,9 C 12,1 C 12,9 C 81 % 1014,3 hPa 0,0 l/m 0,0 km/h (0 Bft) O-NO 67 9,7 C 12,9 C 0,0 km/h (0 Bft)
27.09.2021 01:48 16,9 C 12,0 C 12,9 C 81 % 1014,5 hPa 0,0 l/m 0,0 km/h (0 Bft) O-NO 67 9,7 C 12,9 C 0,0 km/h (0 Bft)
27.09.2021 01:46 16,9 C 12,2 C 12,9 C 81 % 1014,5 hPa 0,0 l/m 0,0 km/h (0 Bft) O-NO 67 9,7 C 12,9 C 0,0 km/h (0 Bft)
27.09.2021 01:44 16,9 C 12,1 C 12,9 C 81 % 1014,5 hPa 0,0 l/m 0,0 km/h (0 Bft) O-NO 67 9,7 C 12,9 C 0,0 km/h (0 Bft)
27.09.2021 01:42 16,9 C 12,5 C 12,9 C 81 % 1014,5 hPa 0,0 l/m 0,0 km/h (0 Bft) O-NO 67 9,7 C 12,9 C 0,0 km/h (0 Bft)
27.09.2021 01:40 16,9 C 12,2 C 12,9 C 80 % 1014,5 hPa 0,0 l/m 0,0 km/h (0 Bft) O-NO 67 9,5 C 12,9 C 0,0 km/h (0 Bft)
27.09.2021 01:38 16,9 C 12,1 C 12,9 C 80 % 1014,5 hPa 0,0 l/m 0,0 km/h (0 Bft) O-NO 67 9,5 C 12,9 C 0,0 km/h (0 Bft)
27.09.2021 01:36 16,9 C 11,9 C 12,9 C 80 % 1014,5 hPa 0,0 l/m 0,0 km/h (0 Bft) O-NO 67 9,5 C 12,9 C 0,0 km/h (0 Bft)
27.09.2021 01:34 16,9 C 11,9 C 13,0 C 80 % 1014,5 hPa 0,0 l/m 0,0 km/h (0 Bft) O-NO 67 9,6 C 13,0 C 0,0 km/h (0 Bft)
27.09.2021 01:32 16,9 C 11,8 C 13,0 C 80 % 1014,5 hPa 0,0 l/m 0,0 km/h (0 Bft) O-NO 67 9,6 C 13,0 C 0,0 km/h (0 Bft)
27.09.2021 01:30 16,9 C 12,0 C 12,9 C 80 % 1014,5 hPa 0,0 l/m 0,0 km/h (0 Bft) O-NO 67 9,5 C 12,9 C 0,0 km/h (0 Bft)
27.09.2021 01:28 16,9 C 12,2 C 12,9 C 80 % 1014,5 hPa 0,0 l/m 0,0 km/h (0 Bft) O-NO 67 9,5 C 12,9 C 0,0 km/h (0 Bft)
27.09.2021 01:26 17,0 C 12,4 C 12,9 C 80 % 1014,5 hPa 0,0 l/m 0,0 km/h (0 Bft) O-NO 67 9,5 C 12,9 C 0,0 km/h (0 Bft)
27.09.2021 01:24 17,0 C 12,5 C 13,0 C 80 % 1014,5 hPa 0,0 l/m 0,0 km/h (0 Bft) O-NO 67 9,6 C 13,0 C 0,0 km/h (0 Bft)
27.09.2021 01:22 17,0 C 12,3 C 12,9 C 80 % 1014,5 hPa 0,0 l/m 0,0 km/h (0 Bft) O-NO 67 9,5 C 12,9 C 0,0 km/h (0 Bft)
27.09.2021 01:20 17,0 C 12,3 C 12,9 C 80 % 1014,5 hPa 0,0 l/m 0,0 km/h (0 Bft) O-NO 67 9,5 C 12,9 C 0,0 km/h (0 Bft)
27.09.2021 01:18 17,0 C 12,4 C 13,0 C 80 % 1014,5 hPa 0,0 l/m 0,0 km/h (0 Bft) O-NO 67 9,6 C 13,0 C 0,0 km/h (0 Bft)
27.09.2021 01:16 17,0 C 12,6 C 13,1 C 80 % 1014,5 hPa 0,0 l/m 0,0 km/h (0 Bft) O-NO 67 9,7 C 13,1 C 0,0 km/h (0 Bft)
27.09.2021 01:14 17,0 C 12,6 C 13,0 C 80 % 1014,5 hPa 0,0 l/m 0,0 km/h (0 Bft) O-NO 67 9,6 C 13,0 C 0,0 km/h (0 Bft)
27.09.2021 01:12 17,0 C 12,7 C 13,0 C 80 % 1014,5 hPa 0,0 l/m 0,0 km/h (0 Bft) O-NO 67 9,6 C 13,0 C 0,0 km/h (0 Bft)
27.09.2021 01:10 17,0 C 12,6 C 13,0 C 80 % 1014,5 hPa 0,0 l/m 0,0 km/h (0 Bft) O-NO 67 9,6 C 13,0 C 0,0 km/h (0 Bft)
27.09.2021 01:08 17,0 C 12,6 C 13,0 C 80 % 1014,4 hPa 0,0 l/m 0,0 km/h (0 Bft) O-NO 67 9,6 C 13,0 C 0,0 km/h (0 Bft)
27.09.2021 01:06 17,0 C 12,6 C 13,0 C 80 % 1014,4 hPa 0,0 l/m 0,0 km/h (0 Bft) O-NO 67 9,6 C 13,0 C 0,0 km/h (0 Bft)
27.09.2021 01:04 17,0 C 12,5 C 12,9 C 80 % 1014,4 hPa 0,0 l/m 0,0 km/h (0 Bft) O-NO 67 9,5 C 12,9 C 0,0 km/h (0 Bft)
27.09.2021 01:02 17,0 C 12,4 C 12,8 C 80 % 1014,4 hPa 0,0 l/m 0,0 km/h (0 Bft) O-NO 67 9,4 C 12,8 C 0,0 km/h (0 Bft)
27.09.2021 01:00 17,0 C 12,2 C 12,8 C 80 % 1014,4 hPa 0,0 l/m 0,0 km/h (0 Bft) O-NO 67 9,4 C 12,8 C 0,0 km/h (0 Bft)
27.09.2021 00:58 17,0 C 12,1 C 12,7 C 80 % 1014,4 hPa 0,0 l/m 0,0 km/h (0 Bft) O-NO 67 9,3 C 12,7 C 0,0 km/h (0 Bft)
27.09.2021 00:56 17,0 C 12,0 C 12,8 C 80 % 1014,4 hPa 0,0 l/m 0,0 km/h (0 Bft) O-NO 67 9,4 C 12,8 C 0,0 km/h (0 Bft)
27.09.2021 00:54 17,1 C 12,0 C 12,8 C 80 % 1014,4 hPa 0,0 l/m 0,0 km/h (0 Bft) O-NO 67 9,4 C 12,8 C 0,0 km/h (0 Bft)
27.09.2021 00:52 17,1 C 12,0 C 12,8 C 80 % 1014,4 hPa 0,0 l/m 0,0 km/h (0 Bft) O-NO 67 9,4 C 12,8 C 0,0 km/h (0 Bft)
27.09.2021 00:50 17,1 C 11,9 C 12,8 C 80 % 1014,4 hPa 0,0 l/m 0,0 km/h (0 Bft) O-NO 67 9,4 C 12,8 C 0,0 km/h (0 Bft)
27.09.2021 00:48 17,1 C 11,8 C 12,8 C 80 % 1014,9 hPa 0,0 l/m 0,0 km/h (0 Bft) O-NO 67 9,4 C 12,8 C 0,0 km/h (0 Bft)
27.09.2021 00:46 17,1 C 11,7 C 12,8 C 80 % 1014,9 hPa 0,0 l/m 0,0 km/h (0 Bft) O-NO 67 9,4 C 12,8 C 0,0 km/h (0 Bft)
27.09.2021 00:44 17,1 C 11,8 C 12,8 C 80 % 1014,9 hPa 0,0 l/m 0,0 km/h (0 Bft) O-NO 67 9,4 C 12,8 C 0,0 km/h (0 Bft)
27.09.2021 00:42 17,1 C 11,7 C 12,9 C 79 % 1014,9 hPa 0,0 l/m 0,0 km/h (0 Bft) O-NO 67 9,3 C 12,9 C 0,0 km/h (0 Bft)
27.09.2021 00:40 17,1 C 11,6 C 12,9 C 79 % 1014,9 hPa 0,0 l/m 0,0 km/h (0 Bft) O-NO 67 9,3 C 12,9 C 0,0 km/h (0 Bft)
27.09.2021 00:38 17,1 C 11,4 C 12,9 C 79 % 1014,9 hPa 0,0 l/m 0,0 km/h (0 Bft) O-NO 67 9,3 C 12,9 C 0,0 km/h (0 Bft)
27.09.2021 00:36 17,1 C 11,3 C 13,0 C 79 % 1014,9 hPa 0,0 l/m 0,0 km/h (0 Bft) O-NO 67 9,4 C 13,0 C 0,0 km/h (0 Bft)
27.09.2021 00:34 17,1 C 11,4 C 13,0 C 79 % 1014,9 hPa 0,0 l/m 0,0 km/h (0 Bft) O-NO 67 9,4 C 13,0 C 0,0 km/h (0 Bft)
27.09.2021 00:32 17,1 C 11,2 C 12,9 C 79 % 1014,9 hPa 0,0 l/m 0,0 km/h (0 Bft) O-NO 67 9,3 C 12,9 C 0,0 km/h (0 Bft)
27.09.2021 00:30 17,1 C 10,9 C 13,0 C 79 % 1014,9 hPa 0,0 l/m 0,0 km/h (0 Bft) O-NO 67 9,4 C 13,0 C 0,0 km/h (0 Bft)
27.09.2021 00:28 17,1 C 10,9 C 13,0 C 79 % 1015,0 hPa 0,0 l/m 0,0 km/h (0 Bft) O-NO 67 9,4 C 13,0 C 0,0 km/h (0 Bft)
27.09.2021 00:26 17,2 C 10,9 C 13,1 C 79 % 1015,0 hPa 0,0 l/m 0,0 km/h (0 Bft) O-NO 67 9,5 C 13,1 C 0,0 km/h (0 Bft)
27.09.2021 00:24 17,2 C 10,9 C 13,1 C 79 % 1015,0 hPa 0,0 l/m 0,0 km/h (0 Bft) O-NO 67 9,5 C 13,1 C 0,0 km/h (0 Bft)
27.09.2021 00:22 17,2 C 10,8 C 13,2 C 79 % 1015,0 hPa 0,0 l/m 0,0 km/h (0 Bft) O-NO 67 9,6 C 13,2 C 0,0 km/h (0 Bft)
27.09.2021 00:20 17,2 C 10,9 C 13,2 C 79 % 1015,0 hPa 0,0 l/m 0,0 km/h (0 Bft) O-NO 67 9,6 C 13,2 C 0,0 km/h (0 Bft)
27.09.2021 00:18 17,2 C 10,9 C 13,2 C 79 % 1015,0 hPa 0,0 l/m 0,0 km/h (0 Bft) O-NO 67 9,6 C 13,2 C 0,0 km/h (0 Bft)
27.09.2021 00:16 17,2 C 10,8 C 13,2 C 79 % 1015,0 hPa 0,0 l/m 0,0 km/h (0 Bft) O-NO 67 9,6 C 13,2 C 0,0 km/h (0 Bft)
27.09.2021 00:14 17,1 C 11,0 C 13,2 C 79 % 1015,0 hPa 0,0 l/m 0,0 km/h (0 Bft) O-NO 67 9,6 C 13,2 C 0,0 km/h (0 Bft)
27.09.2021 00:12 17,1 C 11,0 C 13,3 C 79 % 1015,0 hPa 0,0 l/m 0,0 km/h (0 Bft) O-NO 67 9,7 C 13,3 C 0,0 km/h (0 Bft)
27.09.2021 00:10 17,1 C 11,0 C 13,3 C 79 % 1015,0 hPa 0,0 l/m 0,0 km/h (0 Bft) O-NO 67 9,7 C 13,3 C 0,0 km/h (0 Bft)
27.09.2021 00:08 17,1 C 11,0 C 13,3 C 79 % 1015,0 hPa 0,0 l/m 0,0 km/h (0 Bft) O-NO 67 9,7 C 13,3 C 0,0 km/h (0 Bft)
27.09.2021 00:06 17,1 C 11,0 C 13,3 C 79 % 1015,0 hPa 0,0 l/m 0,0 km/h (0 Bft) O-NO 67 9,7 C 13,3 C 0,0 km/h (0 Bft)
27.09.2021 00:04 17,1 C 11,0 C 13,3 C 79 % 1015,0 hPa 0,0 l/m 0,0 km/h (0 Bft) O-NO 67 9,7 C 13,3 C 0,0 km/h (0 Bft)
27.09.2021 00:02 17,1 C 11,1 C 13,4 C 79 % 1015,0 hPa 0,0 l/m 0,0 km/h (0 Bft) O-NO 67 9,8 C 13,4 C 0,0 km/h (0 Bft)
27.09.2021 00:00 17,1 C 11,2 C 13,4 C 79 % 1015,0 hPa 0,0 l/m 0,0 km/h (0 Bft) O-NO 67 9,8 C 13,4 C 0,0 km/h (0 Bft)
_ Min-Zeit 06:16 00:16 00:58 00:00 01:50 - 00:00 - - 00:58 00:58 00:00
Minimum _ 16,4 C 10,8 C 12,7 C 79 % 1014,3 hPa - 0,0 km/h (0 Bft) - - 9,3 C 12,7 C 0,0 km/h (0 Bft)
_ Max-Zeit 18:00 13:18 17:06 05:34 21:30 00:00 13:36 - - 17:06 17:06 14:26
Maximum _ 17,4 C 19,6 C 18,0 C 85 % 1016,8 hPa 0,0 l/m 9,2 km/h
SW (2 Bft)
- - 14,5 C 18,0 C 29,2 km/h
SW (5 Bft)
Durchschnitt _ 16,9 C 16,0 C 15,6 C 82 % 1015,6 hPa #0,0 l/m 3,0 km/h (1 Bft) W-SW - 12,5 C 15,6 C 4,8 km/h (1 Bft)